Wetterdaten: Freitag, 24.11.2017
Datum Zeit Temp. Aussen Temp. o. S. +5cm Feuchte Auss BlattFeu 1 Luftdruck Regen Sonnenschein Regendauer Solar Windben Empfang
24.11.2017 00:00 10,4 C 10,6 C 8,9 C 86 % 0 lf 1008,5 hPa 0,0 l/m 0 min 0 min 0 W/m 13,5 km/h (3 Bft) 95,74 %
24.11.2017 00:02 10,4 C 10,6 C 8,9 C 86 % 0 lf 1008,5 hPa 0,0 l/m 0 min 0 min 0 W/m 13,5 km/h (3 Bft) 95,45 %
24.11.2017 00:04 10,4 C 10,6 C 8,9 C 86 % 0 lf 1008,5 hPa 0,0 l/m 0 min 0 min 0 W/m 18,0 km/h (3 Bft) 93,62 %
24.11.2017 00:08 10,4 C 10,6 C 8,9 C 85 % 0 lf 1008,4 hPa 0,0 l/m 0 min 0 min 0 W/m 11,3 km/h (2 Bft) 94,25 %
24.11.2017 00:10 10,4 C 10,6 C 8,9 C 85 % 0 lf 1008,3 hPa 0,0 l/m 0 min 0 min 0 W/m 9,0 km/h (2 Bft) 91,30 %
24.11.2017 00:12 10,4 C 10,6 C 8,9 C 85 % 0 lf 1008,3 hPa 0,0 l/m 0 min 0 min 0 W/m 11,3 km/h (2 Bft) 95,74 %
24.11.2017 00:14 10,4 C 10,6 C 8,9 C 85 % 0 lf 1008,4 hPa 0,0 l/m 0 min 0 min 0 W/m 13,5 km/h (3 Bft) 97,87 %
24.11.2017 00:16 10,4 C 10,6 C 8,9 C 85 % 0 lf 1008,3 hPa 0,0 l/m 0 min 0 min 0 W/m 15,8 km/h (3 Bft) 97,87 %
24.11.2017 00:18 10,4 C 10,6 C 8,9 C 85 % 0 lf 1008,4 hPa 0,0 l/m 0 min 0 min 0 W/m 11,3 km/h (2 Bft) 95,74 %
24.11.2017 00:20 10,4 C 10,6 C 8,9 C 85 % 0 lf 1008,4 hPa 0,0 l/m 0 min 0 min 0 W/m 11,3 km/h (2 Bft) 93,48 %
24.11.2017 00:22 10,4 C 10,6 C 8,9 C 85 % 0 lf 1008,3 hPa 0,0 l/m 0 min 0 min 0 W/m 11,3 km/h (2 Bft) 97,87 %
24.11.2017 00:24 10,4 C 10,6 C 8,9 C 85 % 0 lf 1008,3 hPa 0,0 l/m 0 min 0 min 0 W/m 15,8 km/h (3 Bft) 93,62 %
24.11.2017 00:26 10,4 C 10,6 C 8,9 C 85 % 0 lf 1008,4 hPa 0,0 l/m 0 min 0 min 0 W/m 13,5 km/h (3 Bft) 93,62 %
24.11.2017 00:28 10,4 C 10,6 C 8,9 C 85 % 0 lf 1008,4 hPa 0,0 l/m 0 min 0 min 0 W/m 13,5 km/h (3 Bft) 91,49 %
24.11.2017 00:30 10,4 C 10,6 C 8,9 C 85 % 0 lf 1008,5 hPa 0,0 l/m 0 min 0 min 0 W/m 15,8 km/h (3 Bft) 93,62 %
24.11.2017 00:32 10,4 C 10,6 C 8,9 C 85 % 0 lf 1008,5 hPa 0,0 l/m 0 min 0 min 0 W/m 13,5 km/h (3 Bft) 95,65 %
24.11.2017 00:34 10,4 C 10,6 C 8,9 C 85 % 0 lf 1008,4 hPa 0,0 l/m 0 min 0 min 0 W/m 15,8 km/h (3 Bft) 93,62 %
24.11.2017 00:36 10,5 C 10,6 C 8,9 C 85 % 0 lf 1008,5 hPa 0,0 l/m 0 min 0 min 0 W/m 11,3 km/h (2 Bft) 93,62 %
24.11.2017 00:38 10,4 C 10,6 C 8,9 C 85 % 0 lf 1008,3 hPa 0,0 l/m 0 min 0 min 0 W/m 15,8 km/h (3 Bft) 93,62 %
24.11.2017 00:40 10,5 C 10,6 C 8,9 C 85 % 0 lf 1008,4 hPa 0,0 l/m 0 min 0 min 0 W/m 13,5 km/h (3 Bft) 93,62 %
24.11.2017 00:42 10,5 C 10,6 C 8,9 C 85 % 0 lf 1008,3 hPa 0,0 l/m 0 min 0 min 0 W/m 11,3 km/h (2 Bft) 93,62 %
24.11.2017 00:44 10,5 C 10,6 C 8,9 C 85 % 0 lf 1008,4 hPa 0,0 l/m 0 min 0 min 0 W/m 9,0 km/h (2 Bft) 95,65 %
24.11.2017 00:46 10,5 C 10,6 C 8,9 C 85 % 0 lf 1008,4 hPa 0,0 l/m 0 min 0 min 0 W/m 20,3 km/h (4 Bft) 93,62 %
24.11.2017 00:48 10,5 C 10,6 C 8,9 C 85 % 0 lf 1008,3 hPa 0,0 l/m 0 min 0 min 0 W/m 13,5 km/h (3 Bft) 93,62 %
24.11.2017 00:50 10,5 C 10,6 C 8,9 C 85 % 0 lf 1008,3 hPa 0,0 l/m 0 min 0 min 0 W/m 24,8 km/h (4 Bft) 95,74 %
24.11.2017 00:52 10,5 C 10,6 C 8,9 C 85 % 0 lf 1008,2 hPa 0,0 l/m 0 min 0 min 0 W/m 27,0 km/h (4 Bft) 93,62 %
24.11.2017 00:54 10,4 C 10,6 C 8,9 C 84 % 0 lf 1008,2 hPa 0,0 l/m 0 min 0 min 0 W/m 27,0 km/h (4 Bft) 95,74 %
24.11.2017 00:56 10,5 C 10,6 C 8,9 C 83 % 0 lf 1008,2 hPa 0,0 l/m 0 min 0 min 0 W/m 18,0 km/h (3 Bft) 93,48 %
24.11.2017 00:58 10,5 C 10,6 C 8,9 C 83 % 0 lf 1008,2 hPa 0,0 l/m 0 min 0 min 0 W/m 18,0 km/h (3 Bft) 91,49 %
24.11.2017 01:00 10,6 C 10,6 C 9,4 C 83 % 0 lf 1008,1 hPa 0,0 l/m 0 min 0 min 0 W/m 27,0 km/h (4 Bft) 93,62 %
24.11.2017 01:02 10,6 C 10,6 C 9,4 C 83 % 0 lf 1008,2 hPa 0,0 l/m 0 min 0 min 0 W/m 22,5 km/h (4 Bft) 93,62 %
24.11.2017 01:04 10,6 C 10,6 C 9,4 C 82 % 0 lf 1008,1 hPa 0,0 l/m 0 min 0 min 0 W/m 24,8 km/h (4 Bft) 89,36 %
24.11.2017 01:06 10,6 C 10,6 C 9,4 C 82 % 0 lf 1008,1 hPa 0,0 l/m 0 min 0 min 0 W/m 22,5 km/h (4 Bft) 93,48 %
24.11.2017 01:08 10,7 C 10,6 C 9,4 C 82 % 0 lf 1008,1 hPa 0,0 l/m 0 min 0 min 0 W/m 20,3 km/h (4 Bft) 93,62 %
24.11.2017 01:10 10,7 C 10,6 C 9,4 C 82 % 0 lf 1008,1 hPa 0,0 l/m 0 min 0 min 0 W/m 13,5 km/h (3 Bft) 95,74 %
24.11.2017 01:12 10,7 C 10,6 C 8,9 C 82 % 0 lf 1008,0 hPa 0,0 l/m 0 min 0 min 0 W/m 20,3 km/h (4 Bft) 95,74 %
24.11.2017 01:14 10,7 C 10,6 C 8,9 C 82 % 0 lf 1008,0 hPa 0,0 l/m 0 min 0 min 0 W/m 18,0 km/h (3 Bft) 95,74 %
24.11.2017 01:16 10,7 C 10,6 C 8,9 C 82 % 0 lf 1008,0 hPa 0,0 l/m 0 min 0 min 0 W/m 15,8 km/h (3 Bft) 97,87 %
24.11.2017 01:18 10,7 C 10,6 C 8,9 C 82 % 0 lf 1008,0 hPa 0,0 l/m 0 min 0 min 0 W/m 13,5 km/h (3 Bft) 95,65 %
24.11.2017 01:20 10,7 C 10,6 C 8,9 C 82 % 0 lf 1008,0 hPa 0,0 l/m 0 min 0 min 0 W/m 9,0 km/h (2 Bft) 97,87 %
24.11.2017 01:22 10,7 C 10,6 C 8,9 C 82 % 0 lf 1008,0 hPa 0,0 l/m 0 min 0 min 0 W/m 9,0 km/h (2 Bft) 93,62 %
24.11.2017 01:24 10,7 C 10,6 C 8,9 C 82 % 0 lf 1008,0 hPa 0,0 l/m 0 min 0 min 0 W/m 13,5 km/h (3 Bft) 97,87 %
24.11.2017 01:26 10,7 C 10,6 C 8,9 C 82 % 0 lf 1007,9 hPa 0,0 l/m 0 min 0 min 0 W/m 13,5 km/h (3 Bft) 93,62 %
24.11.2017 01:28 10,7 C 10,6 C 8,9 C 82 % 0 lf 1007,9 hPa 0,0 l/m 0 min 0 min 0 W/m 15,8 km/h (3 Bft) 97,87 %
24.11.2017 01:30 10,7 C 10,6 C 8,9 C 82 % 0 lf 1008,0 hPa 0,0 l/m 0 min 0 min 0 W/m 13,5 km/h (3 Bft) 95,65 %
24.11.2017 01:32 10,7 C 10,6 C 8,9 C 82 % 0 lf 1008,0 hPa 0,0 l/m 0 min 0 min 0 W/m 13,5 km/h (3 Bft) 95,74 %
24.11.2017 01:34 10,7 C 10,6 C 8,9 C 82 % 0 lf 1008,0 hPa 0,0 l/m 0 min 0 min 0 W/m 11,3 km/h (2 Bft) 95,74 %
24.11.2017 01:36 10,7 C 10,6 C 8,9 C 82 % 0 lf 1007,9 hPa 0,0 l/m 0 min 0 min 0 W/m 11,3 km/h (2 Bft) 93,62 %
24.11.2017 01:38 10,7 C 10,6 C 8,9 C 82 % 0 lf 1007,9 hPa 0,0 l/m 0 min 0 min 0 W/m 11,3 km/h (2 Bft) 93,62 %
24.11.2017 01:40 10,7 C 10,6 C 8,9 C 82 % 0 lf 1007,8 hPa 0,0 l/m 0 min 0 min 0 W/m 13,5 km/h (3 Bft) 95,74 %
24.11.2017 01:42 10,7 C 10,6 C 8,9 C 82 % 0 lf 1007,7 hPa 0,0 l/m 0 min 0 min 0 W/m 9,0 km/h (2 Bft) 95,65 %
24.11.2017 01:44 10,7 C 10,6 C 8,9 C 82 % 0 lf 1007,6 hPa 0,0 l/m 0 min 0 min 0 W/m 15,8 km/h (3 Bft) 97,87 %
24.11.2017 01:46 10,7 C 10,6 C 8,9 C 82 % 0 lf 1007,6 hPa 0,0 l/m 0 min 0 min 0 W/m 15,8 km/h (3 Bft) 97,87 %
24.11.2017 01:48 10,7 C 10,6 C 8,9 C 83 % 0 lf 1007,6 hPa 0,0 l/m 0 min 0 min 0 W/m 15,8 km/h (3 Bft) 95,74 %
24.11.2017 01:50 10,7 C 10,6 C 8,9 C 83 % 0 lf 1007,6 hPa 0,0 l/m 0 min 0 min 0 W/m 13,5 km/h (3 Bft) 97,87 %
24.11.2017 01:52 10,7 C 10,6 C 8,9 C 83 % 0 lf 1007,5 hPa 0,0 l/m 0 min 0 min 0 W/m 15,8 km/h (3 Bft) 97,87 %
24.11.2017 01:54 10,7 C 10,6 C 8,9 C 83 % 0 lf 1007,5 hPa 0,0 l/m 0 min 0 min 0 W/m 18,0 km/h (3 Bft) 95,65 %
24.11.2017 01:56 10,6 C 10,6 C 8,9 C 83 % 0 lf 1007,4 hPa 0,0 l/m 0 min 0 min 0 W/m 11,3 km/h (2 Bft) 97,87 %
24.11.2017 01:58 10,6 C 10,6 C 8,9 C 83 % 0 lf 1007,4 hPa 0,0 l/m 0 min 0 min 0 W/m 15,8 km/h (3 Bft) 95,74 %
24.11.2017 02:00 10,6 C 10,0 C 8,9 C 84 % 0 lf 1007,5 hPa 0,0 l/m 0 min 0 min 0 W/m 11,3 km/h (2 Bft) 97,87 %
24.11.2017 02:02 10,6 C 10,0 C 8,9 C 84 % 0 lf 1007,4 hPa 0,0 l/m 0 min 0 min 0 W/m 18,0 km/h (3 Bft) 95,74 %
24.11.2017 02:04 10,6 C 10,0 C 8,9 C 84 % 0 lf 1007,5 hPa 0,0 l/m 0 min 0 min 0 W/m 13,5 km/h (3 Bft) 95,74 %
24.11.2017 02:06 10,6 C 10,0 C 8,9 C 84 % 0 lf 1007,5 hPa 0,0 l/m 0 min 0 min 0 W/m 15,8 km/h (3 Bft) 97,83 %
24.11.2017 02:08 10,6 C 10,0 C 8,9 C 84 % 0 lf 1007,4 hPa 0,0 l/m 0 min 0 min 0 W/m 11,3 km/h (2 Bft) 100,00 %
24.11.2017 02:10 10,6 C 10,0 C 8,9 C 84 % 0 lf 1007,3 hPa 0,0 l/m 0 min 0 min 0 W/m 11,3 km/h (2 Bft) 100,00 %
24.11.2017 02:12 10,6 C 10,0 C 8,9 C 84 % 0 lf 1007,1 hPa 0,0 l/m 0 min 0 min 0 W/m 13,5 km/h (3 Bft) 97,87 %
24.11.2017 02:14 10,6 C 10,0 C 8,9 C 84 % 0 lf 1007,0 hPa 0,0 l/m 0 min 0 min 0 W/m 18,0 km/h (3 Bft) 97,87 %
24.11.2017 02:16 10,5 C 10,0 C 8,9 C 84 % 0 lf 1007,0 hPa 0,0 l/m 0 min 0 min 0 W/m 11,3 km/h (2 Bft) 97,87 %
24.11.2017 02:18 10,5 C 10,0 C 8,9 C 85 % 0 lf 1007,1 hPa 0,0 l/m 0 min 0 min 0 W/m 13,5 km/h (3 Bft) 97,83 %
24.11.2017 02:20 10,5 C 10,0 C 8,9 C 85 % 0 lf 1007,1 hPa 0,0 l/m 0 min 0 min 0 W/m 13,5 km/h (3 Bft) 100,00 %
24.11.2017 02:22 10,5 C 10,0 C 8,9 C 85 % 0 lf 1007,0 hPa 0,0 l/m 0 min 0 min 0 W/m 15,8 km/h (3 Bft) 97,87 %
24.11.2017 02:24 10,4 C 10,0 C 8,9 C 85 % 0 lf 1006,9 hPa 0,0 l/m 0 min 0 min 0 W/m 13,5 km/h (3 Bft) 100,00 %
24.11.2017 02:26 10,4 C 10,0 C 8,9 C 85 % 0 lf 1007,0 hPa 0,0 l/m 0 min 0 min 0 W/m 15,8 km/h (3 Bft) 100,00 %
24.11.2017 02:28 10,4 C 10,0 C 8,9 C 85 % 0 lf 1007,0 hPa 0,0 l/m 0 min 0 min 0 W/m 13,5 km/h (3 Bft) 100,00 %
24.11.2017 02:30 10,4 C 10,0 C 8,9 C 85 % 0 lf 1006,9 hPa 0,0 l/m 0 min 0 min 0 W/m 11,3 km/h (2 Bft) 100,00 %
24.11.2017 02:32 10,4 C 10,0 C 8,9 C 85 % 0 lf 1006,9 hPa 0,0 l/m 0 min 0 min 0 W/m 15,8 km/h (3 Bft) 100,00 %
24.11.2017 02:34 10,4 C 10,0 C 8,3 C 85 % 0 lf 1006,9 hPa 0,0 l/m 0 min 0 min 0 W/m 11,3 km/h (2 Bft) 97,87 %
24.11.2017 02:36 10,4 C 10,0 C 8,3 C 85 % 0 lf 1006,9 hPa 0,0 l/m 0 min 0 min 0 W/m 13,5 km/h (3 Bft) 97,87 %
24.11.2017 02:38 10,3 C 10,0 C 8,9 C 85 % 0 lf 1006,8 hPa 0,0 l/m 0 min 0 min 0 W/m 13,5 km/h (3 Bft) 97,87 %
24.11.2017 02:40 10,3 C 10,0 C 8,9 C 85 % 0 lf 1006,8 hPa 0,0 l/m 0 min 0 min 0 W/m 15,8 km/h (3 Bft) 97,87 %
24.11.2017 02:42 10,3 C 10,0 C 8,9 C 85 % 0 lf 1006,8 hPa 0,0 l/m 0 min 0 min 0 W/m 15,8 km/h (3 Bft) 97,83 %
24.11.2017 02:44 10,3 C 10,0 C 8,9 C 85 % 0 lf 1006,9 hPa 0,0 l/m 0 min 0 min 0 W/m 11,3 km/h (2 Bft) 100,00 %
24.11.2017 02:46 10,3 C 10,0 C 8,3 C 86 % 0 lf 1006,8 hPa 0,0 l/m 0 min 0 min 0 W/m 13,5 km/h (3 Bft) 97,87 %
24.11.2017 02:48 10,3 C 10,0 C 8,3 C 86 % 0 lf 1006,8 hPa 0,0 l/m 0 min 0 min 0 W/m 11,3 km/h (2 Bft) 100,00 %
24.11.2017 02:50 10,3 C 10,0 C 8,3 C 86 % 0 lf 1006,7 hPa 0,0 l/m 0 min 0 min 0 W/m 9,0 km/h (2 Bft) 100,00 %
24.11.2017 02:52 10,3 C 10,0 C 8,3 C 86 % 0 lf 1006,5 hPa 0,0 l/m 0 min 0 min 0 W/m 11,3 km/h (2 Bft) 100,00 %
24.11.2017 02:54 10,3 C 10,0 C 8,3 C 86 % 0 lf 1006,6 hPa 0,0 l/m 0 min 0 min 0 W/m 13,5 km/h (3 Bft) 97,87 %
24.11.2017 02:56 10,3 C 10,0 C 8,3 C 86 % 0 lf 1006,5 hPa 0,0 l/m 0 min 0 min 0 W/m 11,3 km/h (2 Bft) 100,00 %
24.11.2017 02:58 10,3 C 10,0 C 8,3 C 86 % 0 lf 1006,5 hPa 0,0 l/m 0 min 0 min 0 W/m 9,0 km/h (2 Bft) 100,00 %
24.11.2017 03:00 10,3 C 10,0 C 8,3 C 86 % 0 lf 1006,5 hPa 0,0 l/m 0 min 0 min 0 W/m 13,5 km/h (3 Bft) 100,00 %
24.11.2017 03:02 10,3 C 10,0 C 8,3 C 86 % 0 lf 1006,5 hPa 0,0 l/m 0 min 0 min 0 W/m 13,5 km/h (3 Bft) 97,87 %
24.11.2017 03:04 10,3 C 10,0 C 8,3 C 86 % 0 lf 1006,5 hPa 0,0 l/m 0 min 0 min 0 W/m 13,5 km/h (3 Bft) 97,83 %
24.11.2017 03:06 10,3 C 10,0 C 8,3 C 87 % 0 lf 1006,6 hPa 0,0 l/m 0 min 0 min 0 W/m 15,8 km/h (3 Bft) 100,00 %
24.11.2017 03:08 10,3 C 10,0 C 8,3 C 87 % 0 lf 1006,7 hPa 0,0 l/m 0 min 0 min 0 W/m 11,3 km/h (2 Bft) 100,00 %
24.11.2017 03:10 10,3 C 10,0 C 8,3 C 87 % 3 lf 1006,8 hPa 0,0 l/m 0 min 2 min 0 W/m 11,3 km/h (2 Bft) 100,00 %
24.11.2017 03:12 10,2 C 9,4 C 8,3 C 87 % 6 lf 1006,8 hPa 0,0 l/m 0 min 2 min 0 W/m 9,0 km/h (2 Bft) 100,00 %
24.11.2017 03:14 10,2 C 9,4 C 7,8 C 87 % 15 lf 1006,9 hPa 0,0 l/m 0 min 2 min 0 W/m 9,0 km/h (2 Bft) 95,74 %
24.11.2017 03:16 10,2 C 8,9 C 7,8 C 87 % 15 lf 1006,8 hPa 0,2 l/m 0 min 2 min 0 W/m 9,0 km/h (2 Bft) 95,65 %
24.11.2017 03:18 10,3 C 8,9 C 7,8 C 88 % 15 lf 1006,8 hPa 0,2 l/m 0 min 2 min 0 W/m 15,8 km/h (3 Bft) 95,74 %
24.11.2017 03:20 10,2 C 8,3 C 7,8 C 88 % 15 lf 1006,6 hPa 0,0 l/m 0 min 2 min 0 W/m 11,3 km/h (2 Bft) 97,87 %
24.11.2017 03:22 10,2 C 8,3 C 7,8 C 88 % 15 lf 1006,6 hPa 0,2 l/m 0 min 2 min 0 W/m 9,0 km/h (2 Bft) 97,87 %
24.11.2017 03:24 10,2 C 8,3 C 7,8 C 88 % 15 lf 1006,6 hPa 0,0 l/m 0 min 2 min 0 W/m 11,3 km/h (2 Bft) 95,74 %
24.11.2017 03:26 10,2 C 8,3 C 7,8 C 88 % 15 lf 1006,5 hPa 0,2 l/m 0 min 2 min 0 W/m 6,8 km/h (2 Bft) 97,87 %
24.11.2017 03:28 10,2 C 8,3 C 7,8 C 89 % 15 lf 1006,5 hPa 0,0 l/m 0 min 2 min 0 W/m 6,8 km/h (2 Bft) 93,48 %
24.11.2017 03:30 10,2 C 8,3 C 7,8 C 89 % 15 lf 1006,4 hPa 0,0 l/m 0 min 2 min 0 W/m 6,8 km/h (2 Bft) 95,74 %
24.11.2017 03:32 10,2 C 8,3 C 7,8 C 89 % 15 lf 1006,4 hPa 0,2 l/m 0 min 2 min 0 W/m 6,8 km/h (2 Bft) 93,62 %
24.11.2017 03:34 10,2 C 8,3 C 7,8 C 89 % 15 lf 1006,4 hPa 0,0 l/m 0 min 2 min 0 W/m 6,8 km/h (2 Bft) 95,74 %
24.11.2017 03:36 10,2 C 8,3 C 7,8 C 89 % 15 lf 1006,4 hPa 0,2 l/m 0 min 2 min 0 W/m 6,8 km/h (2 Bft) 93,62 %
24.11.2017 03:38 10,2 C 8,3 C 7,8 C 90 % 15 lf 1006,4 hPa 0,0 l/m 0 min 2 min 0 W/m 6,8 km/h (2 Bft) 95,74 %
24.11.2017 03:40 10,1 C 8,3 C 7,8 C 89 % 15 lf 1006,4 hPa 0,0 l/m 0 min 2 min 0 W/m 9,0 km/h (2 Bft) 97,83 %
24.11.2017 03:42 10,1 C 8,3 C 7,8 C 90 % 15 lf 1006,4 hPa 0,2 l/m 0 min 2 min 0 W/m 6,8 km/h (2 Bft) 93,62 %
24.11.2017 03:44 10,1 C 8,3 C 7,8 C 90 % 15 lf 1006,3 hPa 0,0 l/m 0 min 2 min 0 W/m 4,5 km/h (1 Bft) 95,74 %
24.11.2017 03:46 10,1 C 8,3 C 7,8 C 90 % 15 lf 1006,2 hPa 0,2 l/m 0 min 2 min 0 W/m 11,3 km/h (2 Bft) 95,74 %
24.11.2017 03:48 10,0 C 8,3 C 7,8 C 90 % 15 lf 1006,2 hPa 0,0 l/m 0 min 2 min 0 W/m 11,3 km/h (2 Bft) 95,74 %
24.11.2017 03:50 10,0 C 8,3 C 7,8 C 90 % 15 lf 1006,1 hPa 0,0 l/m 0 min 2 min 0 W/m 4,5 km/h (1 Bft) 84,78 %
24.11.2017 03:52 9,9 C 8,3 C 7,8 C 90 % 15 lf 1006,2 hPa 0,0 l/m 0 min 2 min 0 W/m 4,5 km/h (1 Bft) 89,36 %
24.11.2017 03:54 9,9 C 8,3 C 7,8 C 90 % 15 lf 1006,1 hPa 0,0 l/m 0 min 2 min 0 W/m 6,8 km/h (2 Bft) 89,36 %
24.11.2017 03:56 9,9 C 8,3 C 7,8 C 91 % 15 lf 1006,1 hPa 0,2 l/m 0 min 2 min 0 W/m 4,5 km/h (1 Bft) 87,23 %
24.11.2017 03:58 9,9 C 8,3 C 7,8 C 90 % 15 lf 1006,1 hPa 0,0 l/m 0 min 2 min 0 W/m 4,5 km/h (1 Bft) 91,49 %
24.11.2017 04:00 9,9 C 8,3 C 7,8 C 91 % 15 lf 1006,1 hPa 0,0 l/m 0 min 2 min 0 W/m 6,8 km/h (2 Bft) 95,74 %
24.11.2017 04:05 9,8 C 8,3 C 7,8 C 91 % 15 lf 1006,1 hPa 0,2 l/m 0 min 5 min 0 W/m 2,3 km/h (1 Bft) 13,04 %
24.11.2017 04:06 9,8 C 8,3 C 7,8 C 91 % 15 lf 1006,1 hPa 0,0 l/m 0 min 1 min 0 W/m 4,5 km/h (1 Bft) 95,65 %
24.11.2017 04:08 9,8 C 8,3 C 7,8 C 91 % 15 lf 1006,2 hPa 0,0 l/m 0 min 2 min 0 W/m 4,5 km/h (1 Bft) 95,74 %
24.11.2017 04:10 9,8 C 8,3 C 7,8 C 91 % 15 lf 1006,2 hPa 0,2 l/m 0 min 2 min 0 W/m 4,5 km/h (1 Bft) 97,87 %
24.11.2017 04:12 9,8 C 8,3 C 7,8 C 91 % 15 lf 1006,1 hPa 0,0 l/m 0 min 2 min 0 W/m 4,5 km/h (1 Bft) 95,74 %
24.11.2017 04:14 9,7 C 8,3 C 7,8 C 91 % 15 lf 1006,1 hPa 0,2 l/m 0 min 2 min 0 W/m 6,8 km/h (2 Bft) 95,65 %
24.11.2017 04:16 9,7 C 8,3 C 7,8 C 91 % 15 lf 1006,1 hPa 0,0 l/m 0 min 2 min 0 W/m 6,8 km/h (2 Bft) 95,74 %
24.11.2017 04:18 9,7 C 8,3 C 7,8 C 91 % 15 lf 1006,0 hPa 0,0 l/m 0 min 2 min 0 W/m 6,8 km/h (2 Bft) 95,74 %
24.11.2017 04:20 9,7 C 8,3 C 7,8 C 91 % 15 lf 1006,0 hPa 0,2 l/m 0 min 2 min 0 W/m 6,8 km/h (2 Bft) 95,74 %
24.11.2017 04:22 9,7 C 8,3 C 7,8 C 91 % 15 lf 1006,1 hPa 0,0 l/m 0 min 2 min 0 W/m 9,0 km/h (2 Bft) 95,74 %
24.11.2017 04:24 9,7 C 8,3 C 7,8 C 91 % 15 lf 1006,1 hPa 0,0 l/m 0 min 2 min 0 W/m 4,5 km/h (1 Bft) 93,62 %
24.11.2017 04:26 9,6 C 8,3 C 7,8 C 91 % 15 lf 1006,0 hPa 0,0 l/m 0 min 2 min 0 W/m 6,8 km/h (2 Bft) 93,48 %
24.11.2017 04:28 9,6 C 8,3 C 7,8 C 92 % 15 lf 1005,9 hPa 0,0 l/m 0 min 2 min 0 W/m 11,3 km/h (2 Bft) 95,74 %
24.11.2017 04:30 9,6 C 8,3 C 7,8 C 92 % 15 lf 1005,7 hPa 0,0 l/m 0 min 2 min 0 W/m 9,0 km/h (2 Bft) 95,74 %
24.11.2017 04:32 9,6 C 8,3 C 7,8 C 92 % 15 lf 1005,5 hPa 0,2 l/m 0 min 2 min 0 W/m 6,8 km/h (2 Bft) 95,74 %
24.11.2017 04:34 9,6 C 8,3 C 7,2 C 92 % 15 lf 1005,4 hPa 0,0 l/m 0 min 2 min 0 W/m 9,0 km/h (2 Bft) 95,74 %
24.11.2017 04:36 9,5 C 8,3 C 7,2 C 92 % 15 lf 1005,4 hPa 0,0 l/m 0 min 2 min 0 W/m 9,0 km/h (2 Bft) 95,74 %
24.11.2017 04:38 9,5 C 8,3 C 7,2 C 92 % 15 lf 1005,2 hPa 0,0 l/m 0 min 2 min 0 W/m 9,0 km/h (2 Bft) 95,65 %
24.11.2017 04:40 9,5 C 8,3 C 7,2 C 92 % 15 lf 1005,2 hPa 0,0 l/m 0 min 2 min 0 W/m 9,0 km/h (2 Bft) 95,74 %
24.11.2017 04:42 9,4 C 8,3 C 7,2 C 92 % 15 lf 1005,1 hPa 0,0 l/m 0 min 2 min 0 W/m 11,3 km/h (2 Bft) 97,87 %
24.11.2017 04:44 9,4 C 8,3 C 7,2 C 92 % 15 lf 1005,2 hPa 0,0 l/m 0 min 2 min 0 W/m 9,0 km/h (2 Bft) 93,62 %
24.11.2017 04:46 9,4 C 8,3 C 7,2 C 92 % 15 lf 1005,2 hPa 0,0 l/m 0 min 0 min 0 W/m 6,8 km/h (2 Bft) 97,87 %
24.11.2017 04:48 9,4 C 8,3 C 7,2 C 93 % 15 lf 1005,2 hPa 0,0 l/m 0 min 0 min 0 W/m 2,3 km/h (1 Bft) 95,74 %
24.11.2017 04:50 9,4 C 8,3 C 7,2 C 93 % 15 lf 1005,1 hPa 0,0 l/m 0 min 0 min 0 W/m 4,5 km/h (1 Bft) 97,83 %
24.11.2017 04:52 9,4 C 8,3 C 7,2 C 93 % 15 lf 1005,0 hPa 0,0 l/m 0 min 0 min 0 W/m 0,0 km/h (0 Bft) 95,74 %
24.11.2017 04:54 9,4 C 8,3 C 7,2 C 93 % 15 lf 1004,9 hPa 0,0 l/m 0 min 0 min 0 W/m 4,5 km/h (1 Bft) 95,74 %
24.11.2017 04:56 9,3 C 8,3 C 7,2 C 93 % 15 lf 1004,7 hPa 0,0 l/m 0 min 0 min 0 W/m 6,8 km/h (2 Bft) 100,00 %
24.11.2017 04:58 9,3 C 8,3 C 7,2 C 93 % 15 lf 1004,7 hPa 0,0 l/m 0 min 0 min 0 W/m 6,8 km/h (2 Bft) 100,00 %
24.11.2017 05:00 9,3 C 8,3 C 7,2 C 93 % 15 lf 1004,7 hPa 0,0 l/m 0 min 0 min 0 W/m 9,0 km/h (2 Bft) 100,00 %
24.11.2017 05:02 9,3 C 8,3 C 7,2 C 93 % 15 lf 1004,6 hPa 0,0 l/m 0 min 0 min 0 W/m 6,8 km/h (2 Bft) 95,65 %
24.11.2017 05:04 9,3 C 8,3 C 7,2 C 93 % 15 lf 1004,5 hPa 0,0 l/m 0 min 0 min 0 W/m 4,5 km/h (1 Bft) 100,00 %
24.11.2017 05:06 9,3 C 8,3 C 7,2 C 93 % 15 lf 1004,5 hPa 0,0 l/m 0 min 0 min 0 W/m 4,5 km/h (1 Bft) 95,74 %
24.11.2017 05:08 9,3 C 8,3 C 7,2 C 93 % 15 lf 1004,4 hPa 0,0 l/m 0 min 0 min 0 W/m 6,8 km/h (2 Bft) 100,00 %
24.11.2017 05:10 9,3 C 8,3 C 7,2 C 93 % 15 lf 1004,4 hPa 0,0 l/m 0 min 0 min 0 W/m 4,5 km/h (1 Bft) 100,00 %
24.11.2017 05:12 9,3 C 8,3 C 7,2 C 93 % 15 lf 1004,5 hPa 0,0 l/m 0 min 0 min 0 W/m 6,8 km/h (2 Bft) 100,00 %
24.11.2017 05:14 9,2 C 8,3 C 7,2 C 93 % 15 lf 1004,6 hPa 0,0 l/m 0 min 0 min 0 W/m 4,5 km/h (1 Bft) 97,83 %
24.11.2017 05:16 9,2 C 8,3 C 7,2 C 94 % 15 lf 1004,9 hPa 0,0 l/m 0 min 0 min 0 W/m 4,5 km/h (1 Bft) 100,00 %
24.11.2017 05:18 9,2 C 8,3 C 7,2 C 94 % 15 lf 1005,0 hPa 0,0 l/m 0 min 0 min 0 W/m 4,5 km/h (1 Bft) 93,62 %
24.11.2017 05:20 9,2 C 8,3 C 7,2 C 94 % 15 lf 1005,0 hPa 0,0 l/m 0 min 2 min 0 W/m 4,5 km/h (1 Bft) 97,87 %
24.11.2017 05:22 9,2 C 8,3 C 7,2 C 94 % 15 lf 1005,0 hPa 0,2 l/m 0 min 2 min 0 W/m 2,3 km/h (1 Bft) 97,87 %
24.11.2017 05:24 9,2 C 8,3 C 7,2 C 94 % 15 lf 1004,9 hPa 0,2 l/m 0 min 2 min 0 W/m 4,5 km/h (1 Bft) 97,83 %
24.11.2017 05:26 9,2 C 8,3 C 7,2 C 94 % 15 lf 1004,8 hPa 0,2 l/m 0 min 2 min 0 W/m 4,5 km/h (1 Bft) 97,87 %
24.11.2017 05:28 9,1 C 8,3 C 7,2 C 94 % 15 lf 1004,7 hPa 0,2 l/m 0 min 2 min 0 W/m 6,8 km/h (2 Bft) 97,87 %
24.11.2017 05:30 9,1 C 8,3 C 7,2 C 94 % 15 lf 1004,6 hPa 0,0 l/m 0 min 2 min 0 W/m 6,8 km/h (2 Bft) 95,74 %
24.11.2017 05:32 9,1 C 8,3 C 7,2 C 94 % 15 lf 1004,5 hPa 0,0 l/m 0 min 2 min 0 W/m 6,8 km/h (2 Bft) 95,74 %
24.11.2017 05:34 9,1 C 8,3 C 7,2 C 94 % 15 lf 1004,4 hPa 0,0 l/m 0 min 2 min 0 W/m 6,8 km/h (2 Bft) 97,87 %
24.11.2017 05:35 9,1 C 8,3 C 7,2 C 94 % 15 lf 1004,4 hPa 0,0 l/m 0 min 1 min 0 W/m 6,8 km/h (2 Bft) 99,12 %
24.11.2017 05:40 9,1 C 8,3 C 7,2 C 94 % 15 lf 1004,8 hPa 0,2 l/m 0 min 5 min 0 W/m 6,8 km/h (2 Bft) 92,86 %
24.11.2017 05:42 9,1 C 8,3 C 7,2 C 94 % 15 lf 1004,8 hPa 0,0 l/m 0 min 2 min 0 W/m 6,8 km/h (2 Bft) 98,28 %
24.11.2017 05:44 9,1 C 8,3 C 7,2 C 94 % 15 lf 1004,9 hPa 0,4 l/m 0 min 2 min 0 W/m 4,5 km/h (1 Bft) 97,83 %
24.11.2017 05:46 9,1 C 8,3 C 7,2 C 94 % 15 lf 1005,0 hPa 0,2 l/m 0 min 2 min 0 W/m 6,8 km/h (2 Bft) 100,00 %
24.11.2017 05:48 9,1 C 8,3 C 7,2 C 94 % 15 lf 1004,6 hPa 0,2 l/m 0 min 2 min 0 W/m 4,5 km/h (1 Bft) 94,59 %
24.11.2017 05:50 9,1 C 8,3 C 7,2 C 94 % 15 lf 1004,5 hPa 0,2 l/m 0 min 2 min 0 W/m 4,5 km/h (1 Bft) 97,87 %
24.11.2017 05:52 9,1 C 8,3 C 7,2 C 94 % 15 lf 1004,5 hPa 0,0 l/m 0 min 2 min 0 W/m 2,3 km/h (1 Bft) 95,74 %
24.11.2017 05:54 9,0 C 8,3 C 7,2 C 95 % 15 lf 1004,5 hPa 0,2 l/m 0 min 2 min 0 W/m 4,5 km/h (1 Bft) 100,00 %
24.11.2017 05:56 9,0 C 8,3 C 7,2 C 95 % 15 lf 1004,5 hPa 0,0 l/m 0 min 2 min 0 W/m 6,8 km/h (2 Bft) 100,00 %
24.11.2017 05:58 9,0 C 8,3 C 7,2 C 95 % 15 lf 1004,6 hPa 0,0 l/m 0 min 2 min 0 W/m 4,5 km/h (1 Bft) 97,87 %
24.11.2017 06:00 9,0 C 8,3 C 7,2 C 95 % 15 lf 1004,7 hPa 0,2 l/m 0 min 2 min 0 W/m 0,0 km/h (0 Bft) 97,87 %
24.11.2017 06:02 9,0 C 8,3 C 7,2 C 95 % 15 lf 1004,8 hPa 0,0 l/m 0 min 2 min 0 W/m 4,5 km/h (1 Bft) 93,62 %
24.11.2017 06:04 9,0 C 8,3 C 7,2 C 95 % 15 lf 1004,9 hPa 0,0 l/m 0 min 2 min 0 W/m 4,5 km/h (1 Bft) 97,87 %
24.11.2017 06:06 9,0 C 8,3 C 7,2 C 95 % 15 lf 1005,0 hPa 0,2 l/m 0 min 2 min 0 W/m 6,8 km/h (2 Bft) 95,74 %
24.11.2017 06:10 9,0 C 8,3 C 7,2 C 95 % 15 lf 1005,0 hPa 0,6 l/m 0 min 4 min 0 W/m 6,8 km/h (2 Bft) 98,59 %
24.11.2017 06:12 9,0 C 8,3 C 7,2 C 95 % 15 lf 1005,0 hPa 0,2 l/m 0 min 2 min 0 W/m 9,0 km/h (2 Bft) 98,28 %
24.11.2017 06:14 9,0 C 8,3 C 7,2 C 95 % 15 lf 1005,1 hPa 0,2 l/m 0 min 2 min 0 W/m 11,3 km/h (2 Bft) 91,49 %
24.11.2017 06:16 8,9 C 8,3 C 7,2 C 95 % 15 lf 1005,2 hPa 0,2 l/m 0 min 2 min 0 W/m 20,3 km/h (4 Bft) 97,87 %
24.11.2017 06:18 8,9 C 8,3 C 7,2 C 95 % 15 lf 1005,3 hPa 0,2 l/m 0 min 2 min 0 W/m 11,3 km/h (2 Bft) 97,87 %
24.11.2017 06:20 8,9 C 8,3 C 7,2 C 95 % 15 lf 1005,2 hPa 0,0 l/m 0 min 2 min 0 W/m 13,5 km/h (3 Bft) 98,15 %
24.11.2017 06:22 8,9 C 7,8 C 7,2 C 95 % 15 lf 1005,2 hPa 0,2 l/m 0 min 2 min 0 W/m 22,5 km/h (4 Bft) 97,83 %
24.11.2017 06:24 8,9 C 7,8 C 7,2 C 95 % 15 lf 1005,2 hPa 0,2 l/m 0 min 2 min 0 W/m 18,0 km/h (3 Bft) 95,74 %
24.11.2017 06:26 8,9 C 7,8 C 7,2 C 95 % 15 lf 1005,2 hPa 0,2 l/m 0 min 2 min 0 W/m 15,8 km/h (3 Bft) 95,74 %
24.11.2017 06:28 8,9 C 7,8 C 7,2 C 95 % 15 lf 1005,3 hPa 0,2 l/m 0 min 2 min 0 W/m 13,5 km/h (3 Bft) 97,87 %
24.11.2017 06:30 8,8 C 7,8 C 7,2 C 95 % 15 lf 1005,3 hPa 0,2 l/m 0 min 2 min 0 W/m 11,3 km/h (2 Bft) 97,87 %
24.11.2017 06:32 8,8 C 7,8 C 7,2 C 95 % 15 lf 1005,4 hPa 0,2 l/m 0 min 2 min 0 W/m 13,5 km/h (3 Bft) 95,65 %
24.11.2017 06:34 8,8 C 7,8 C 7,2 C 95 % 15 lf 1005,3 hPa 0,0 l/m 0 min 2 min 0 W/m 9,0 km/h (2 Bft) 93,62 %
24.11.2017 06:36 8,7 C 7,8 C 7,2 C 95 % 15 lf 1005,3 hPa 0,2 l/m 0 min 2 min 0 W/m 13,5 km/h (3 Bft) 97,87 %
24.11.2017 06:38 8,7 C 7,8 C 7,2 C 95 % 15 lf 1005,2 hPa 0,2 l/m 0 min 2 min 0 W/m 11,3 km/h (2 Bft) 97,87 %
24.11.2017 06:40 8,7 C 7,8 C 7,2 C 95 % 15 lf 1005,3 hPa 0,0 l/m 0 min 2 min 0 W/m 13,5 km/h (3 Bft) 94,00 %
24.11.2017 06:42 8,7 C 7,8 C 7,2 C 95 % 15 lf 1005,4 hPa 0,2 l/m 0 min 2 min 0 W/m 15,8 km/h (3 Bft) 100,00 %
24.11.2017 06:44 8,7 C 7,8 C 7,2 C 95 % 15 lf 1005,5 hPa 0,0 l/m 0 min 2 min 0 W/m 15,8 km/h (3 Bft) 93,48 %
24.11.2017 06:46 8,7 C 7,8 C 7,2 C 95 % 15 lf 1005,5 hPa 0,0 l/m 0 min 2 min 0 W/m 15,8 km/h (3 Bft) 95,74 %
24.11.2017 06:48 8,6 C 7,8 C 7,2 C 95 % 15 lf 1005,5 hPa 0,0 l/m 0 min 2 min 0 W/m 15,8 km/h (3 Bft) 97,87 %
24.11.2017 06:50 8,6 C 7,8 C 7,2 C 95 % 15 lf 1005,4 hPa 0,0 l/m 0 min 2 min 0 W/m 13,5 km/h (3 Bft) 95,74 %
24.11.2017 06:52 8,6 C 7,8 C 7,2 C 95 % 15 lf 1005,4 hPa 0,0 l/m 0 min 2 min 0 W/m 15,8 km/h (3 Bft) 97,87 %
24.11.2017 06:54 8,6 C 7,8 C 7,2 C 95 % 15 lf 1005,3 hPa 0,0 l/m 0 min 2 min 0 W/m 20,3 km/h (4 Bft) 97,87 %
24.11.2017 06:56 8,6 C 7,8 C 6,7 C 95 % 15 lf 1005,3 hPa 0,0 l/m 0 min 2 min 0 W/m 18,0 km/h (3 Bft) 97,83 %
24.11.2017 06:58 8,5 C 7,8 C 6,7 C 95 % 15 lf 1005,4 hPa 0,2 l/m 0 min 2 min 0 W/m 11,3 km/h (2 Bft) 97,87 %
24.11.2017 07:00 8,5 C 7,8 C 6,7 C 95 % 15 lf 1005,4 hPa 0,0 l/m 0 min 2 min 0 W/m 18,0 km/h (3 Bft) 95,74 %
24.11.2017 07:02 8,5 C 7,8 C 6,7 C 95 % 15 lf 1005,4 hPa 0,0 l/m 0 min 2 min 0 W/m 9,0 km/h (2 Bft) 95,74 %
24.11.2017 07:04 8,4 C 7,8 C 6,7 C 96 % 15 lf 1005,3 hPa 0,0 l/m 0 min 2 min 0 W/m 11,3 km/h (2 Bft) 93,62 %
24.11.2017 07:06 8,4 C 7,2 C 6,7 C 96 % 15 lf 1005,3 hPa 0,0 l/m 0 min 2 min 0 W/m 18,0 km/h (3 Bft) 95,74 %
24.11.2017 07:08 8,4 C 7,2 C 6,7 C 96 % 15 lf 1005,2 hPa 0,0 l/m 0 min 2 min 0 W/m 11,3 km/h (2 Bft) 97,83 %
24.11.2017 07:10 8,3 C 7,2 C 6,7 C 96 % 15 lf 1005,2 hPa 0,0 l/m 0 min 2 min 0 W/m 9,0 km/h (2 Bft) 97,87 %
24.11.2017 07:12 8,3 C 7,2 C 6,7 C 96 % 15 lf 1005,2 hPa 0,0 l/m 0 min 2 min 0 W/m 9,0 km/h (2 Bft) 93,62 %
24.11.2017 07:14 8,3 C 7,2 C 6,7 C 95 % 15 lf 1005,0 hPa 0,0 l/m 0 min 0 min 0 W/m 9,0 km/h (2 Bft) 93,62 %
24.11.2017 07:16 8,3 C 7,2 C 6,7 C 95 % 15 lf 1004,9 hPa 0,0 l/m 0 min 0 min 0 W/m 4,5 km/h (1 Bft) 93,62 %
24.11.2017 07:18 8,2 C 7,2 C 6,7 C 95 % 15 lf 1004,8 hPa 0,0 l/m 0 min 0 min 0 W/m 2,3 km/h (1 Bft) 95,65 %
24.11.2017 07:20 8,2 C 7,2 C 6,7 C 95 % 15 lf 1004,7 hPa 0,0 l/m 0 min 0 min 0 W/m 2,3 km/h (1 Bft) 95,74 %
24.11.2017 07:22 8,2 C 7,2 C 6,7 C 95 % 15 lf 1004,7 hPa 0,0 l/m 0 min 0 min 0 W/m 2,3 km/h (1 Bft) 93,62 %
24.11.2017 07:24 8,2 C 7,2 C 6,7 C 95 % 15 lf 1004,7 hPa 0,0 l/m 0 min 2 min 0 W/m 4,5 km/h (1 Bft) 95,74 %
24.11.2017 07:26 8,1 C 7,2 C 6,7 C 96 % 15 lf 1004,7 hPa 0,0 l/m 0 min 2 min 0 W/m 4,5 km/h (1 Bft) 93,62 %
24.11.2017 07:28 8,1 C 7,2 C 6,7 C 96 % 15 lf 1004,5 hPa 0,0 l/m 0 min 2 min 0 W/m 6,8 km/h (2 Bft) 93,62 %
24.11.2017 07:30 8,1 C 7,2 C 6,7 C 96 % 15 lf 1004,5 hPa 0,0 l/m 0 min 0 min 0 W/m 6,8 km/h (2 Bft) 93,48 %
24.11.2017 07:32 8,1 C 7,2 C 6,7 C 96 % 15 lf 1004,5 hPa 0,0 l/m 0 min 2 min 0 W/m 4,5 km/h (1 Bft) 93,62 %
24.11.2017 07:34 8,1 C 7,2 C 6,7 C 96 % 15 lf 1004,6 hPa 0,0 l/m 0 min 2 min 0 W/m 6,8 km/h (2 Bft) 95,74 %
24.11.2017 07:36 8,1 C 7,2 C 6,7 C 96 % 15 lf 1004,6 hPa 0,0 l/m 0 min 2 min 0 W/m 9,0 km/h (2 Bft) 95,74 %
24.11.2017 07:38 8,0 C 7,2 C 6,7 C 96 % 15 lf 1004,6 hPa 0,2 l/m 0 min 2 min 0 W/m 9,0 km/h (2 Bft) 89,36 %
24.11.2017 07:40 8,0 C 7,2 C 6,7 C 96 % 15 lf 1004,9 hPa 0,0 l/m 0 min 2 min 0 W/m 11,3 km/h (2 Bft) 95,74 %
24.11.2017 07:42 8,0 C 7,2 C 6,7 C 96 % 15 lf 1005,2 hPa 0,2 l/m 0 min 2 min 0 W/m 6,8 km/h (2 Bft) 95,65 %
24.11.2017 07:44 7,9 C 7,2 C 6,7 C 96 % 15 lf 1005,3 hPa 0,0 l/m 0 min 2 min 0 W/m 4,5 km/h (1 Bft) 100,00 %
24.11.2017 07:46 7,9 C 7,2 C 6,7 C 96 % 15 lf 1005,3 hPa 0,2 l/m 0 min 2 min 0 W/m 6,8 km/h (2 Bft) 97,87 %
24.11.2017 07:48 7,9 C 7,2 C 6,7 C 96 % 15 lf 1005,5 hPa 0,2 l/m 0 min 2 min 0 W/m 6,8 km/h (2 Bft) 95,74 %
24.11.2017 07:50 7,9 C 7,2 C 6,7 C 96 % 15 lf 1005,7 hPa 0,0 l/m 0 min 2 min 0 W/m 4,5 km/h (1 Bft) 97,87 %
24.11.2017 07:52 7,9 C 7,2 C 6,7 C 96 % 15 lf 1005,9 hPa 0,0 l/m 0 min 2 min 0 W/m 6,8 km/h (2 Bft) 97,87 %
24.11.2017 07:54 7,9 C 7,2 C 6,7 C 96 % 15 lf 1005,8 hPa 0,0 l/m 0 min 2 min 0 W/m 6,8 km/h (2 Bft) 97,83 %
24.11.2017 07:56 7,9 C 7,2 C 6,7 C 96 % 15 lf 1005,8 hPa 0,2 l/m 0 min 2 min 0 W/m 6,8 km/h (2 Bft) 95,74 %
24.11.2017 07:58 7,9 C 7,2 C 6,7 C 96 % 15 lf 1005,6 hPa 0,2 l/m 0 min 2 min 0 W/m 6,8 km/h (2 Bft) 97,87 %
24.11.2017 08:00 7,9 C 7,2 C 6,7 C 96 % 15 lf 1005,4 hPa 0,0 l/m 0 min 2 min 0 W/m 6,8 km/h (2 Bft) 97,87 %
24.11.2017 08:02 7,9 C 7,2 C 6,7 C 96 % 15 lf 1005,5 hPa 0,2 l/m 0 min 2 min 0 W/m 6,8 km/h (2 Bft) 97,87 %
24.11.2017 08:04 7,9 C 7,2 C 6,7 C 96 % 15 lf 1005,7 hPa 0,0 l/m 0 min 2 min 0 W/m 4,5 km/h (1 Bft) 97,87 %
24.11.2017 08:06 7,9 C 7,2 C 6,7 C 96 % 15 lf 1005,9 hPa 0,2 l/m 0 min 2 min 0 W/m 4,5 km/h (1 Bft) 95,65 %
24.11.2017 08:08 7,9 C 7,2 C 6,7 C 96 % 15 lf 1005,9 hPa 0,0 l/m 0 min 2 min 0 W/m 4,5 km/h (1 Bft) 95,74 %
24.11.2017 08:10 7,9 C 7,2 C 6,7 C 96 % 15 lf 1006,0 hPa 0,0 l/m 0 min 2 min 0 W/m 4,5 km/h (1 Bft) 95,74 %
24.11.2017 08:12 7,9 C 7,2 C 6,7 C 96 % 15 lf 1006,2 hPa 0,0 l/m 0 min 2 min 0 W/m 6,8 km/h (2 Bft) 95,74 %
24.11.2017 08:14 7,9 C 7,2 C 6,7 C 96 % 15 lf 1006,2 hPa 0,0 l/m 0 min 2 min 0 W/m 6,8 km/h (2 Bft) 95,74 %
24.11.2017 08:16 7,8 C 7,2 C 6,7 C 96 % 15 lf 1006,4 hPa 0,0 l/m 0 min 2 min 0 W/m 9,0 km/h (2 Bft) 95,74 %
24.11.2017 08:18 7,8 C 7,2 C 6,7 C 96 % 15 lf 1006,5 hPa 0,0 l/m 0 min 2 min 0 W/m 9,0 km/h (2 Bft) 97,83 %
24.11.2017 08:20 7,8 C 7,2 C 6,7 C 96 % 15 lf 1006,6 hPa 0,2 l/m 0 min 2 min 0 W/m 6,8 km/h (2 Bft) 97,87 %
24.11.2017 08:22 7,8 C 7,2 C 6,7 C 96 % 15 lf 1006,5 hPa 0,0 l/m 0 min 2 min 0 W/m 6,8 km/h (2 Bft) 93,62 %
24.11.2017 08:24 7,8 C 7,2 C 6,7 C 96 % 15 lf 1006,6 hPa 0,0 l/m 0 min 2 min 0 W/m 6,8 km/h (2 Bft) 97,87 %
24.11.2017 08:26 7,8 C 7,2 C 6,7 C 96 % 15 lf 1006,6 hPa 0,2 l/m 0 min 2 min 0 W/m 9,0 km/h (2 Bft) 97,87 %
24.11.2017 08:28 7,8 C 7,2 C 6,7 C 96 % 15 lf 1006,7 hPa 0,0 l/m 0 min 2 min 0 W/m 6,8 km/h (2 Bft) 97,83 %
24.11.2017 08:30 7,8 C 7,2 C 6,7 C 96 % 15 lf 1006,7 hPa 0,0 l/m 0 min 2 min 0 W/m 6,8 km/h (2 Bft) 97,87 %
24.11.2017 08:32 7,8 C 7,2 C 6,7 C 96 % 15 lf 1006,7 hPa 0,0 l/m 0 min 2 min 0 W/m 4,5 km/h (1 Bft) 97,87 %
24.11.2017 08:34 7,8 C 7,2 C 6,7 C 96 % 15 lf 1006,8 hPa 0,0 l/m 0 min 2 min 0 W/m 6,8 km/h (2 Bft) 97,87 %
24.11.2017 08:36 7,8 C 7,2 C 6,7 C 96 % 15 lf 1006,7 hPa 0,2 l/m 0 min 2 min 1 W/m 4,5 km/h (1 Bft) 97,87 %
24.11.2017 08:38 7,8 C 7,2 C 6,7 C 96 % 15 lf 1006,7 hPa 0,0 l/m 0 min 2 min 5 W/m 4,5 km/h (1 Bft) 93,62 %
24.11.2017 08:40 7,8 C 7,2 C 6,7 C 96 % 15 lf 1006,7 hPa 0,0 l/m 0 min 2 min 5 W/m 6,8 km/h (2 Bft) 95,74 %
24.11.2017 08:42 7,8 C 7,2 C 6,7 C 96 % 15 lf 1006,8 hPa 0,2 l/m 0 min 2 min 5 W/m 4,5 km/h (1 Bft) 95,65 %
24.11.2017 08:44 7,8 C 7,2 C 6,7 C 96 % 15 lf 1006,8 hPa 0,0 l/m 0 min 2 min 5 W/m 6,8 km/h (2 Bft) 95,74 %
24.11.2017 08:46 7,8 C 7,2 C 6,7 C 96 % 15 lf 1006,8 hPa 0,0 l/m 0 min 0 min 5 W/m 6,8 km/h (2 Bft) 93,62 %
24.11.2017 08:48 7,8 C 7,2 C 6,7 C 96 % 15 lf 1006,9 hPa 0,0 l/m 0 min 0 min 5 W/m 9,0 km/h (2 Bft) 93,62 %
24.11.2017 08:50 7,8 C 7,2 C 6,7 C 96 % 15 lf 1007,1 hPa 0,0 l/m 0 min 0 min 3 W/m 6,8 km/h (2 Bft) 95,74 %
24.11.2017 08:52 7,8 C 7,2 C 6,7 C 96 % 15 lf 1007,1 hPa 0,0 l/m 0 min 0 min 5 W/m 4,5 km/h (1 Bft) 95,65 %
24.11.2017 08:54 7,8 C 7,2 C 6,7 C 96 % 15 lf 1007,1 hPa 0,0 l/m 0 min 0 min 9 W/m 9,0 km/h (2 Bft) 95,74 %
24.11.2017 08:56 7,7 C 7,2 C 6,7 C 96 % 15 lf 1007,1 hPa 0,0 l/m 0 min 0 min 10 W/m 6,8 km/h (2 Bft) 95,74 %
24.11.2017 08:58 7,7 C 7,2 C 6,7 C 96 % 15 lf 1007,1 hPa 0,0 l/m 0 min 0 min 9 W/m 6,8 km/h (2 Bft) 95,74 %
24.11.2017 09:00 7,7 C 7,2 C 6,7 C 96 % 15 lf 1007,0 hPa 0,0 l/m 0 min 2 min 9 W/m 4,5 km/h (1 Bft) 97,87 %
24.11.2017 09:02 7,7 C 7,2 C 6,7 C 96 % 15 lf 1007,0 hPa 0,0 l/m 0 min 2 min 7 W/m 4,5 km/h (1 Bft) 95,74 %
24.11.2017 09:04 7,7 C 7,2 C 6,7 C 96 % 15 lf 1007,0 hPa 0,0 l/m 0 min 2 min 7 W/m 4,5 km/h (1 Bft) 93,48 %
24.11.2017 09:06 7,7 C 7,2 C 6,7 C 96 % 15 lf 1007,0 hPa 0,0 l/m 0 min 2 min 9 W/m 4,5 km/h (1 Bft) 93,62 %
24.11.2017 09:08 7,7 C 7,2 C 6,7 C 96 % 15 lf 1007,1 hPa 0,0 l/m 0 min 2 min 7 W/m 4,5 km/h (1 Bft) 95,74 %
24.11.2017 09:10 7,7 C 7,2 C 6,7 C 96 % 15 lf 1007,2 hPa 0,0 l/m 0 min 2 min 5 W/m 4,5 km/h (1 Bft) 95,74 %
24.11.2017 09:12 7,7 C 7,2 C 6,7 C 96 % 15 lf 1007,2 hPa 0,0 l/m 0 min 2 min 5 W/m 4,5 km/h (1 Bft) 95,74 %
24.11.2017 09:14 7,7 C 7,2 C 6,7 C 96 % 15 lf 1007,2 hPa 0,0 l/m 0 min 2 min 5 W/m 4,5 km/h (1 Bft) 95,74 %
24.11.2017 09:16 7,7 C 7,2 C 6,7 C 96 % 15 lf 1007,1 hPa 0,0 l/m 0 min 0 min 7 W/m 6,8 km/h (2 Bft) 95,65 %
24.11.2017 09:18 7,7 C 7,2 C 6,7 C 96 % 15 lf 1007,1 hPa 0,0 l/m 0 min 0 min 9 W/m 6,8 km/h (2 Bft) 95,74 %
24.11.2017 09:20 7,7 C 7,2 C 6,7 C 96 % 15 lf 1007,2 hPa 0,0 l/m 0 min 0 min 10 W/m 4,5 km/h (1 Bft) 91,84 %
24.11.2017 09:22 7,7 C 7,2 C 6,7 C 96 % 15 lf 1007,2 hPa 0,0 l/m 0 min 0 min 12 W/m 4,5 km/h (1 Bft) 91,49 %
24.11.2017 09:24 7,7 C 7,2 C 6,7 C 96 % 15 lf 1007,1 hPa 0,0 l/m 0 min 0 min 13 W/m 6,8 km/h (2 Bft) 95,74 %
24.11.2017 09:26 7,7 C 7,2 C 6,7 C 96 % 15 lf 1007,1 hPa 0,0 l/m 0 min 0 min 17 W/m 6,8 km/h (2 Bft) 95,65 %
24.11.2017 09:28 7,7 C 7,2 C 6,7 C 96 % 15 lf 1007,1 hPa 0,0 l/m 0 min 0 min 21 W/m 4,5 km/h (1 Bft) 97,87 %
24.11.2017 09:30 7,7 C 7,2 C 6,7 C 96 % 15 lf 1007,2 hPa 0,0 l/m 0 min 0 min 24 W/m 6,8 km/h (2 Bft) 100,00 %
24.11.2017 09:32 7,7 C 7,2 C 6,7 C 96 % 15 lf 1007,2 hPa 0,0 l/m 0 min 0 min 27 W/m 6,8 km/h (2 Bft) 93,62 %
24.11.2017 09:34 7,7 C 7,2 C 6,7 C 96 % 15 lf 1007,2 hPa 0,0 l/m 0 min 0 min 32 W/m 4,5 km/h (1 Bft) 95,74 %
24.11.2017 09:36 7,7 C 7,2 C 6,7 C 96 % 15 lf 1007,3 hPa 0,0 l/m 0 min 0 min 39 W/m 6,8 km/h (2 Bft) 93,62 %
24.11.2017 09:38 7,7 C 7,8 C 6,7 C 97 % 15 lf 1007,3 hPa 0,0 l/m 0 min 0 min 43 W/m 4,5 km/h (1 Bft) 97,83 %
24.11.2017 09:40 7,7 C 7,8 C 7,2 C 97 % 15 lf 1007,4 hPa 0,0 l/m 0 min 0 min 48 W/m 6,8 km/h (2 Bft) 95,74 %
24.11.2017 09:42 7,7 C 7,8 C 7,2 C 97 % 15 lf 1007,4 hPa 0,0 l/m 0 min 0 min 46 W/m 4,5 km/h (1 Bft) 97,87 %
24.11.2017 09:44 7,7 C 7,8 C 7,2 C 97 % 15 lf 1007,5 hPa 0,0 l/m 0 min 0 min 41 W/m 6,8 km/h (2 Bft) 97,87 %
24.11.2017 09:46 7,7 C 7,8 C 7,2 C 97 % 15 lf 1007,6 hPa 0,0 l/m 0 min 0 min 41 W/m 6,8 km/h (2 Bft) 97,87 %
24.11.2017 09:48 7,7 C 7,8 C 7,2 C 97 % 15 lf 1007,5 hPa 0,0 l/m 0 min 0 min 44 W/m 4,5 km/h (1 Bft) 97,83 %
24.11.2017 09:50 7,8 C 7,8 C 6,7 C 97 % 15 lf 1007,6 hPa 0,0 l/m 0 min 0 min 41 W/m 4,5 km/h (1 Bft) 97,87 %
24.11.2017 09:52 7,7 C 7,8 C 6,7 C 97 % 15 lf 1007,6 hPa 0,0 l/m 0 min 0 min 42 W/m 6,8 km/h (2 Bft) 95,74 %
24.11.2017 09:54 7,8 C 7,8 C 7,2 C 97 % 15 lf 1007,6 hPa 0,0 l/m 0 min 0 min 50 W/m 6,8 km/h (2 Bft) 97,87 %
24.11.2017 09:56 7,8 C 7,8 C 7,2 C 97 % 15 lf 1007,6 hPa 0,0 l/m 0 min 0 min 59 W/m 9,0 km/h (2 Bft) 97,87 %
24.11.2017 09:58 7,8 C 7,8 C 7,2 C 97 % 15 lf 1007,7 hPa 0,0 l/m 0 min 0 min 66 W/m 6,8 km/h (2 Bft) 97,87 %
24.11.2017 10:00 7,8 C 8,3 C 7,2 C 97 % 15 lf 1007,6 hPa 0,0 l/m 0 min 0 min 73 W/m 6,8 km/h (2 Bft) 97,14 %
24.11.2017 10:02 7,8 C 7,8 C 7,2 C 97 % 15 lf 1007,7 hPa 0,0 l/m 0 min 0 min 85 W/m 9,0 km/h (2 Bft) 97,87 %
24.11.2017 10:04 7,9 C 8,3 C 7,8 C 97 % 15 lf 1007,7 hPa 0,0 l/m 0 min 0 min 99 W/m 6,8 km/h (2 Bft) 97,83 %
24.11.2017 10:06 7,9 C 8,3 C 7,8 C 97 % 15 lf 1007,8 hPa 0,0 l/m 2 min 0 min 109 W/m 6,8 km/h (2 Bft) 97,87 %
24.11.2017 10:08 7,9 C 8,9 C 7,8 C 97 % 15 lf 1007,9 hPa 0,0 l/m 2 min 0 min 114 W/m 6,8 km/h (2 Bft) 95,74 %
24.11.2017 10:10 8,0 C 8,9 C 7,8 C 97 % 15 lf 1007,9 hPa 0,0 l/m 2 min 0 min 112 W/m 9,0 km/h (2 Bft) 97,87 %
24.11.2017 10:12 8,1 C 8,9 C 7,8 C 97 % 15 lf 1007,9 hPa 0,0 l/m 2 min 0 min 122 W/m 6,8 km/h (2 Bft) 97,87 %
24.11.2017 10:14 8,1 C 8,9 C 7,8 C 97 % 15 lf 1007,8 hPa 0,0 l/m 2 min 0 min 122 W/m 4,5 km/h (1 Bft) 97,87 %
24.11.2017 10:16 8,1 C 8,9 C 7,8 C 97 % 15 lf 1007,9 hPa 0,0 l/m 0 min 0 min 109 W/m 9,0 km/h (2 Bft) 95,65 %
24.11.2017 10:18 8,1 C 8,9 C 7,8 C 97 % 15 lf 1008,1 hPa 0,0 l/m 0 min 0 min 88 W/m 9,0 km/h (2 Bft) 97,87 %
24.11.2017 10:20 8,2 C 8,3 C 7,8 C 97 % 15 lf 1008,0 hPa 0,0 l/m 0 min 0 min 78 W/m 9,0 km/h (2 Bft) 95,74 %
24.11.2017 10:22 8,2 C 8,9 C 7,8 C 97 % 15 lf 1008,1 hPa 0,0 l/m 0 min 0 min 92 W/m 9,0 km/h (2 Bft) 97,87 %
24.11.2017 10:24 8,2 C 8,9 C 7,8 C 97 % 15 lf 1008,2 hPa 0,0 l/m 0 min 0 min 92 W/m 6,8 km/h (2 Bft) 97,87 %
24.11.2017 10:26 8,2 C 8,9 C 7,8 C 97 % 15 lf 1008,2 hPa 0,0 l/m 0 min 0 min 82 W/m 9,0 km/h (2 Bft) 100,00 %
24.11.2017 10:28 8,2 C 8,9 C 7,8 C 97 % 15 lf 1008,2 hPa 0,0 l/m 0 min 0 min 79 W/m 13,5 km/h (3 Bft) 96,15 %
24.11.2017 10:30 8,2 C 8,3 C 7,8 C 97 % 15 lf 1008,2 hPa 0,0 l/m 0 min 0 min 76 W/m 11,3 km/h (2 Bft) 97,87 %
24.11.2017 10:32 8,2 C 8,3 C 7,8 C 97 % 15 lf 1008,3 hPa 0,0 l/m 0 min 0 min 78 W/m 15,8 km/h (3 Bft) 100,00 %
24.11.2017 10:34 8,2 C 8,3 C 7,8 C 97 % 15 lf 1008,3 hPa 0,0 l/m 0 min 0 min 80 W/m 15,8 km/h (3 Bft) 100,00 %
24.11.2017 10:36 8,2 C 8,3 C 7,8 C 97 % 15 lf 1008,4 hPa 0,0 l/m 0 min 0 min 79 W/m 11,3 km/h (2 Bft) 97,87 %
24.11.2017 10:38 8,2 C 8,3 C 7,8 C 97 % 15 lf 1008,5 hPa 0,0 l/m 0 min 0 min 91 W/m 15,8 km/h (3 Bft) 97,83 %
24.11.2017 10:40 8,2 C 8,3 C 7,8 C 97 % 15 lf 1008,4 hPa 0,0 l/m 0 min 0 min 107 W/m 18,0 km/h (3 Bft) 100,00 %
24.11.2017 10:42 8,2 C 8,3 C 7,8 C 97 % 15 lf 1008,5 hPa 0,0 l/m 0 min 0 min 118 W/m 18,0 km/h (3 Bft) 100,00 %
24.11.2017 10:44 8,2 C 8,9 C 7,8 C 97 % 15 lf 1008,4 hPa 0,0 l/m 2 min 0 min 150 W/m 15,8 km/h (3 Bft) 97,87 %
24.11.2017 10:46 8,2 C 8,9 C 8,3 C 97 % 15 lf 1008,5 hPa 0,0 l/m 2 min 0 min 156 W/m 13,5 km/h (3 Bft) 97,87 %
24.11.2017 10:48 8,2 C 8,9 C 8,3 C 97 % 15 lf 1008,6 hPa 0,0 l/m 2 min 0 min 153 W/m 15,8 km/h (3 Bft) 95,74 %
24.11.2017 10:50 8,2 C 8,9 C 8,3 C 97 % 15 lf 1008,5 hPa 0,0 l/m 2 min 0 min 160 W/m 11,3 km/h (2 Bft) 100,00 %
24.11.2017 10:52 8,3 C 8,9 C 8,3 C 97 % 15 lf 1008,5 hPa 0,0 l/m 2 min 0 min 164 W/m 9,0 km/h (2 Bft) 100,00 %
24.11.2017 10:54 8,3 C 9,4 C 8,3 C 97 % 15 lf 1008,5 hPa 0,0 l/m 2 min 2 min 161 W/m 9,0 km/h (2 Bft) 100,00 %
24.11.2017 10:56 8,3 C 8,9 C 8,3 C 97 % 15 lf 1008,5 hPa 0,0 l/m 0 min 2 min 121 W/m 9,0 km/h (2 Bft) 97,87 %
24.11.2017 10:58 8,3 C 9,4 C 8,3 C 97 % 15 lf 1008,6 hPa 0,0 l/m 0 min 0 min 100 W/m 6,8 km/h (2 Bft) 100,00 %
24.11.2017 11:00 8,3 C 9,4 C 8,3 C 97 % 15 lf 1008,6 hPa 0,0 l/m 0 min 0 min 103 W/m 9,0 km/h (2 Bft) 97,87 %
24.11.2017 11:02 8,4 C 8,9 C 8,3 C 97 % 15 lf 1008,6 hPa 0,0 l/m 0 min 2 min 90 W/m 6,8 km/h (2 Bft) 93,48 %
24.11.2017 11:04 8,4 C 8,9 C 8,3 C 97 % 15 lf 1008,6 hPa 0,0 l/m 0 min 0 min 84 W/m 6,8 km/h (2 Bft) 97,87 %
24.11.2017 11:06 8,4 C 8,9 C 7,8 C 97 % 15 lf 1008,6 hPa 0,0 l/m 0 min 0 min 95 W/m 15,8 km/h (3 Bft) 97,87 %
24.11.2017 11:08 8,4 C 8,9 C 7,8 C 97 % 15 lf 1008,7 hPa 0,0 l/m 0 min 0 min 101 W/m 11,3 km/h (2 Bft) 97,87 %
24.11.2017 11:10 8,4 C 8,9 C 7,8 C 97 % 15 lf 1008,7 hPa 0,0 l/m 0 min 2 min 103 W/m 9,0 km/h (2 Bft) 95,74 %
24.11.2017 11:12 8,4 C 8,9 C 7,8 C 97 % 15 lf 1008,7 hPa 0,0 l/m 0 min 2 min 115 W/m 4,5 km/h (1 Bft) 95,74 %
24.11.2017 11:14 8,4 C 8,9 C 8,3 C 97 % 15 lf 1008,8 hPa 0,0 l/m 0 min 0 min 115 W/m 9,0 km/h (2 Bft) 97,83 %
24.11.2017 11:16 8,4 C 8,9 C 7,8 C 97 % 15 lf 1008,7 hPa 0,0 l/m 0 min 0 min 117 W/m 13,5 km/h (3 Bft) 97,87 %
24.11.2017 11:18 8,4 C 8,9 C 7,8 C 97 % 15 lf 1008,7 hPa 0,0 l/m 0 min 0 min 120 W/m 9,0 km/h (2 Bft) 97,87 %
24.11.2017 11:20 8,4 C 8,9 C 7,8 C 97 % 15 lf 1008,7 hPa 0,0 l/m 0 min 2 min 121 W/m 11,3 km/h (2 Bft) 95,74 %
24.11.2017 11:22 8,4 C 8,9 C 7,8 C 97 % 15 lf 1008,7 hPa 0,0 l/m 0 min 0 min 125 W/m 11,3 km/h (2 Bft) 97,87 %
24.11.2017 11:24 8,4 C 8,9 C 7,8 C 97 % 15 lf 1008,8 hPa 0,0 l/m 0 min 0 min 108 W/m 9,0 km/h (2 Bft) 97,87 %
24.11.2017 11:26 8,4 C 8,9 C 7,8 C 97 % 15 lf 1008,8 hPa 0,0 l/m 0 min 0 min 107 W/m 9,0 km/h (2 Bft) 97,83 %
24.11.2017 11:28 8,4 C 8,9 C 7,8 C 97 % 15 lf 1008,8 hPa 0,0 l/m 0 min 2 min 125 W/m 15,8 km/h (3 Bft) 93,62 %
24.11.2017 11:30 8,4 C 8,9 C 8,3 C 97 % 15 lf 1008,8 hPa 0,0 l/m 0 min 0 min 146 W/m 11,3 km/h (2 Bft) 93,62 %
24.11.2017 11:32 8,3 C 8,9 C 8,3 C 97 % 15 lf 1008,9 hPa 0,0 l/m 0 min 0 min 139 W/m 11,3 km/h (2 Bft) 97,87 %
24.11.2017 11:34 8,3 C 8,9 C 8,3 C 97 % 15 lf 1008,9 hPa 0,0 l/m 0 min 0 min 119 W/m 9,0 km/h (2 Bft) 95,74 %
24.11.2017 11:36 8,4 C 8,9 C 7,8 C 97 % 14 lf 1009,0 hPa 0,0 l/m 0 min 0 min 99 W/m 9,0 km/h (2 Bft) 93,48 %
24.11.2017 11:38 8,4 C 8,9 C 7,8 C 97 % 14 lf 1009,1 hPa 0,0 l/m 0 min 2 min 84 W/m 9,0 km/h (2 Bft) 93,62 %
24.11.2017 11:40 8,4 C 8,9 C 7,8 C 97 % 14 lf 1009,0 hPa 0,0 l/m 0 min 0 min 102 W/m 9,0 km/h (2 Bft) 91,49 %
24.11.2017 11:42 8,4 C 8,9 C 7,8 C 97 % 14 lf 1009,0 hPa 0,0 l/m 0 min 0 min 99 W/m 11,3 km/h (2 Bft) 95,74 %
24.11.2017 11:44 8,3 C 8,9 C 7,8 C 97 % 12 lf 1009,1 hPa 0,0 l/m 0 min 0 min 97 W/m 11,3 km/h (2 Bft) 95,74 %
24.11.2017 11:46 8,4 C 8,9 C 7,8 C 97 % 13 lf 1009,1 hPa 0,0 l/m 0 min 0 min 106 W/m 9,0 km/h (2 Bft) 93,62 %
24.11.2017 11:48 8,4 C 8,9 C 7,8 C 97 % 11 lf 1009,2 hPa 0,0 l/m 0 min 0 min 94 W/m 9,0 km/h (2 Bft) 97,83 %
24.11.2017 11:50 8,4 C 8,9 C 7,8 C 97 % 12 lf 1009,1 hPa 0,0 l/m 0 min 0 min 87 W/m 11,3 km/h (2 Bft) 95,74 %
24.11.2017 11:52 8,4 C 8,9 C 7,8 C 97 % 10 lf 1009,2 hPa 0,0 l/m 0 min 0 min 74 W/m 9,0 km/h (2 Bft) 95,74 %
24.11.2017 11:54 8,4 C 8,3 C 7,8 C 97 % 10 lf 1009,2 hPa 0,0 l/m 0 min 0 min 68 W/m 11,3 km/h (2 Bft) 95,74 %
24.11.2017 11:56 8,4 C 8,3 C 7,8 C 97 % 10 lf 1009,2 hPa 0,0 l/m 0 min 0 min 58 W/m 9,0 km/h (2 Bft) 93,62 %
24.11.2017 11:58 8,3 C 8,3 C 7,8 C 97 % 11 lf 1009,3 hPa 0,0 l/m 0 min 0 min 58 W/m 6,8 km/h (2 Bft) 95,74 %
24.11.2017 12:00 8,3 C 8,3 C 7,2 C 97 % 10 lf 1009,3 hPa 0,0 l/m 0 min 0 min 48 W/m 13,5 km/h (3 Bft) 95,65 %
24.11.2017 12:02 8,3 C 7,8 C 7,2 C 97 % 9 lf 1009,3 hPa 0,0 l/m 0 min 0 min 34 W/m 13,5 km/h (3 Bft) 95,74 %
24.11.2017 12:04 8,3 C 7,8 C 7,2 C 97 % 9 lf 1009,3 hPa 0,0 l/m 0 min 0 min 28 W/m 13,5 km/h (3 Bft) 95,74 %
24.11.2017 12:06 8,2 C 7,8 C 7,2 C 97 % 10 lf 1009,4 hPa 0,0 l/m 0 min 0 min 30 W/m 9,0 km/h (2 Bft) 95,74 %
24.11.2017 12:10 8,2 C 7,8 C 7,2 C 97 % 10 lf 1009,5 hPa 0,0 l/m 0 min 0 min 26 W/m 15,8 km/h (3 Bft) 92,71 %
24.11.2017 12:12 8,2 C 7,8 C 7,2 C 96 % 9 lf 1009,5 hPa 0,0 l/m 0 min 0 min 28 W/m 13,5 km/h (3 Bft) 95,65 %
24.11.2017 12:14 8,2 C 7,8 C 7,2 C 96 % 8 lf 1009,5 hPa 0,0 l/m 0 min 0 min 56 W/m 11,3 km/h (2 Bft) 97,87 %
24.11.2017 12:16 8,2 C 7,8 C 7,2 C 96 % 7 lf 1009,5 hPa 0,0 l/m 0 min 0 min 94 W/m 11,3 km/h (2 Bft) 95,74 %
24.11.2017 12:18 8,2 C 8,3 C 7,8 C 96 % 6 lf 1009,5 hPa 0,0 l/m 0 min 0 min 92 W/m 13,5 km/h (3 Bft) 97,87 %
24.11.2017 12:20 8,2 C 8,3 C 7,8 C 96 % 5 lf 1009,5 hPa 0,0 l/m 0 min 0 min 73 W/m 18,0 km/h (3 Bft) 97,87 %
24.11.2017 12:22 8,2 C 8,3 C 7,2 C 96 % 5 lf 1009,5 hPa 0,0 l/m 0 min 0 min 57 W/m 18,0 km/h (3 Bft) 95,65 %
24.11.2017 12:24 8,2 C 7,8 C 7,2 C 96 % 5 lf 1009,7 hPa 0,0 l/m 0 min 0 min 42 W/m 13,5 km/h (3 Bft) 93,62 %
24.11.2017 12:26 8,2 C 7,8 C 7,2 C 96 % 5 lf 1009,7 hPa 0,0 l/m 0 min 2 min 41 W/m 15,8 km/h (3 Bft) 95,74 %
24.11.2017 12:28 8,2 C 7,8 C 7,2 C 96 % 4 lf 1009,7 hPa 0,0 l/m 0 min 2 min 42 W/m 15,8 km/h (3 Bft) 95,74 %
24.11.2017 12:30 8,2 C 7,8 C 7,2 C 96 % 4 lf 1009,8 hPa 0,0 l/m 0 min 0 min 33 W/m 20,3 km/h (4 Bft) 93,62 %
24.11.2017 12:32 8,2 C 7,8 C 7,2 C 96 % 4 lf 1009,9 hPa 0,0 l/m 0 min 0 min 30 W/m 11,3 km/h (2 Bft) 95,74 %
24.11.2017 12:34 8,2 C 7,8 C 6,7 C 96 % 3 lf 1009,8 hPa 0,0 l/m 0 min 0 min 30 W/m 13,5 km/h (3 Bft) 95,65 %
24.11.2017 12:36 8,2 C 7,8 C 6,7 C 96 % 3 lf 1009,8 hPa 0,0 l/m 0 min 0 min 30 W/m 13,5 km/h (3 Bft) 95,74 %
24.11.2017 12:38 8,2 C 7,8 C 6,7 C 96 % 3 lf 1009,8 hPa 0,0 l/m 0 min 0 min 32 W/m 13,5 km/h (3 Bft) 97,87 %
24.11.2017 12:40 8,1 C 7,8 C 6,7 C 96 % 2 lf 1009,8 hPa 0,0 l/m 0 min 0 min 33 W/m 13,5 km/h (3 Bft) 95,74 %
24.11.2017 12:42 8,1 C 7,8 C 6,7 C 96 % 2 lf 1009,8 hPa 0,0 l/m 0 min 0 min 36 W/m 13,5 km/h (3 Bft) 95,74 %
24.11.2017 12:44 8,1 C 7,8 C 7,2 C 96 % 2 lf 1009,8 hPa 0,0 l/m 0 min 0 min 39 W/m 11,3 km/h (2 Bft) 97,87 %
24.11.2017 12:46 8,1 C 7,8 C 6,7 C 96 % 1 lf 1009,9 hPa 0,0 l/m 0 min 0 min 42 W/m 13,5 km/h (3 Bft) 95,65 %
24.11.2017 12:48 8,1 C 7,8 C 6,7 C 96 % 0 lf 1009,9 hPa 0,0 l/m 0 min 0 min 40 W/m 13,5 km/h (3 Bft) 97,87 %
24.11.2017 12:50 8,1 C 7,8 C 6,7 C 96 % 0 lf 1009,9 hPa 0,0 l/m 0 min 0 min 38 W/m 13,5 km/h (3 Bft) 97,87 %
24.11.2017 12:52 8,1 C 7,8 C 7,2 C 96 % 0 lf 1009,9 hPa 0,0 l/m 0 min 0 min 39 W/m 15,8 km/h (3 Bft) 93,62 %
24.11.2017 12:54 8,1 C 7,8 C 7,2 C 96 % 0 lf 1009,9 hPa 0,0 l/m 0 min 0 min 40 W/m 9,0 km/h (2 Bft) 97,87 %
24.11.2017 12:56 8,1 C 7,8 C 7,2 C 96 % 0 lf 1009,9 hPa 0,0 l/m 0 min 0 min 42 W/m 15,8 km/h (3 Bft) 95,74 %
24.11.2017 12:58 8,1 C 7,8 C 7,2 C 96 % 0 lf 1009,9 hPa 0,0 l/m 0 min 0 min 42 W/m 18,0 km/h (3 Bft) 95,65 %
24.11.2017 13:00 8,1 C 7,8 C 6,7 C 96 % 0 lf 1009,9 hPa 0,0 l/m 0 min 0 min 40 W/m 13,5 km/h (3 Bft) 95,74 %
24.11.2017 13:02 8,1 C 7,8 C 6,7 C 96 % 0 lf 1009,9 hPa 0,0 l/m 0 min 0 min 39 W/m 11,3 km/h (2 Bft) 95,74 %
24.11.2017 13:04 8,1 C 7,8 C 6,7 C 95 % 0 lf 1010,0 hPa 0,0 l/m 0 min 0 min 39 W/m 11,3 km/h (2 Bft) 93,62 %
24.11.2017 13:06 8,1 C 7,8 C 6,7 C 95 % 0 lf 1010,0 hPa 0,0 l/m 0 min 0 min 40 W/m 11,3 km/h (2 Bft) 95,74 %
24.11.2017 13:08 8,1 C 7,8 C 6,7 C 95 % 0 lf 1010,0 hPa 0,0 l/m 0 min 0 min 41 W/m 15,8 km/h (3 Bft) 97,87 %
24.11.2017 13:10 8,1 C 7,8 C 7,2 C 95 % 0 lf 1010,0 hPa 0,0 l/m 0 min 0 min 41 W/m 9,0 km/h (2 Bft) 95,65 %
24.11.2017 13:12 8,1 C 7,8 C 7,2 C 95 % 0 lf 1009,9 hPa 0,0 l/m 0 min 0 min 47 W/m 4,5 km/h (1 Bft) 95,74 %
24.11.2017 13:14 8,1 C 7,8 C 7,2 C 95 % 0 lf 1009,9 hPa 0,0 l/m 0 min 0 min 51 W/m 4,5 km/h (1 Bft) 97,87 %
24.11.2017 13:16 8,1 C 7,8 C 7,2 C 95 % 0 lf 1009,9 hPa 0,0 l/m 0 min 0 min 55 W/m 2,3 km/h (1 Bft) 97,87 %
24.11.2017 13:18 8,1 C 7,8 C 7,2 C 95 % 0 lf 1010,0 hPa 0,0 l/m 0 min 0 min 61 W/m 9,0 km/h (2 Bft) 91,49 %
24.11.2017 13:20 8,1 C 7,8 C 7,2 C 95 % 0 lf 1009,9 hPa 0,0 l/m 0 min 0 min 70 W/m 6,8 km/h (2 Bft) 95,74 %
24.11.2017 13:22 8,1 C 7,8 C 7,2 C 95 % 0 lf 1009,9 hPa 0,0 l/m 0 min 0 min 69 W/m 6,8 km/h (2 Bft) 97,83 %
24.11.2017 13:24 8,1 C 7,8 C 7,2 C 95 % 0 lf 1009,9 hPa 0,0 l/m 0 min 0 min 68 W/m 9,0 km/h (2 Bft) 97,87 %
24.11.2017 13:26 8,1 C 7,8 C 7,2 C 95 % 0 lf 1009,9 hPa 0,0 l/m 0 min 0 min 69 W/m 13,5 km/h (3 Bft) 97,87 %
24.11.2017 13:28 8,1 C 7,8 C 7,2 C 95 % 0 lf 1009,9 hPa 0,0 l/m 0 min 0 min 70 W/m 13,5 km/h (3 Bft) 100,00 %
24.11.2017 13:30 8,1 C 8,3 C 7,2 C 95 % 0 lf 1010,0 hPa 0,0 l/m 0 min 0 min 74 W/m 6,8 km/h (2 Bft) 100,00 %
24.11.2017 13:32 8,1 C 8,3 C 7,2 C 95 % 0 lf 1010,0 hPa 0,0 l/m 0 min 0 min 86 W/m 6,8 km/h (2 Bft) 100,00 %
24.11.2017 13:34 8,1 C 8,3 C 7,8 C 95 % 0 lf 1010,0 hPa 0,0 l/m 0 min 0 min 87 W/m 6,8 km/h (2 Bft) 97,83 %
24.11.2017 13:36 8,1 C 8,3 C 7,8 C 95 % 0 lf 1010,0 hPa 0,0 l/m 0 min 0 min 78 W/m 6,8 km/h (2 Bft) 100,00 %
24.11.2017 13:38 8,2 C 8,3 C 7,8 C 95 % 0 lf 1010,0 hPa 0,0 l/m 0 min 0 min 75 W/m 6,8 km/h (2 Bft) 100,00 %
24.11.2017 13:40 8,2 C 8,3 C 7,8 C 95 % 0 lf 1010,0 hPa 0,0 l/m 0 min 0 min 75 W/m 9,0 km/h (2 Bft) 100,00 %
24.11.2017 13:42 8,2 C 8,3 C 7,8 C 95 % 0 lf 1009,9 hPa 0,0 l/m 0 min 0 min 76 W/m 4,5 km/h (1 Bft) 100,00 %
24.11.2017 13:44 8,2 C 8,3 C 7,8 C 95 % 0 lf 1009,9 hPa 0,0 l/m 0 min 0 min 78 W/m 6,8 km/h (2 Bft) 97,83 %
24.11.2017 13:46 8,2 C 8,3 C 7,8 C 95 % 0 lf 1009,9 hPa 0,0 l/m 0 min 0 min 84 W/m 9,0 km/h (2 Bft) 100,00 %
24.11.2017 13:48 8,2 C 8,3 C 7,8 C 95 % 0 lf 1010,1 hPa 0,0 l/m 0 min 0 min 81 W/m 9,0 km/h (2 Bft) 100,00 %
24.11.2017 13:50 8,2 C 8,3 C 7,8 C 95 % 0 lf 1010,0 hPa 0,0 l/m 0 min 0 min 84 W/m 13,5 km/h (3 Bft) 100,00 %
24.11.2017 13:52 8,2 C 8,3 C 7,2 C 95 % 0 lf 1010,0 hPa 0,0 l/m 0 min 0 min 92 W/m 13,5 km/h (3 Bft) 100,00 %
24.11.2017 13:54 8,2 C 8,3 C 7,2 C 95 % 0 lf 1010,0 hPa 0,0 l/m 0 min 0 min 91 W/m 9,0 km/h (2 Bft) 100,00 %
24.11.2017 13:56 8,3 C 8,9 C 7,2 C 95 % 0 lf 1010,0 hPa 0,0 l/m 0 min 0 min 89 W/m 9,0 km/h (2 Bft) 100,00 %
24.11.2017 13:58 8,3 C 8,9 C 7,2 C 95 % 0 lf 1010,0 hPa 0,0 l/m 0 min 0 min 91 W/m 9,0 km/h (2 Bft) 97,87 %
24.11.2017 14:00 8,3 C 8,9 C 6,7 C 95 % 0 lf 1009,9 hPa 0,0 l/m 0 min 0 min 88 W/m 11,3 km/h (2 Bft) 100,00 %
24.11.2017 14:02 8,3 C 8,9 C 6,7 C 95 % 0 lf 1010,0 hPa 0,0 l/m 0 min 0 min 75 W/m 6,8 km/h (2 Bft) 95,74 %
24.11.2017 14:04 8,3 C 8,3 C 6,7 C 95 % 0 lf 1010,0 hPa 0,0 l/m 0 min 0 min 65 W/m 9,0 km/h (2 Bft) 100,00 %
24.11.2017 14:06 8,3 C 8,3 C 6,7 C 95 % 0 lf 1010,0 hPa 0,0 l/m 0 min 0 min 68 W/m 11,3 km/h (2 Bft) 100,00 %
24.11.2017 14:08 8,2 C 8,3 C 6,7 C 94 % 0 lf 1010,0 hPa 0,0 l/m 0 min 0 min 90 W/m 9,0 km/h (2 Bft) 97,83 %
24.11.2017 14:10 8,2 C 10,0 C 6,7 C 94 % 0 lf 1010,0 hPa 0,0 l/m 2 min 0 min 174 W/m 9,0 km/h (2 Bft) 100,00 %
24.11.2017 14:12 8,2 C 10,6 C 6,7 C 94 % 0 lf 1010,0 hPa 0,0 l/m 2 min 0 min 148 W/m 9,0 km/h (2 Bft) 100,00 %
24.11.2017 14:14 8,2 C 11,1 C 7,2 C 94 % 0 lf 1010,0 hPa 0,0 l/m 2 min 0 min 141 W/m 13,5 km/h (3 Bft) 97,87 %
24.11.2017 14:16 8,3 C 11,1 C 7,2 C 94 % 0 lf 1010,1 hPa 0,0 l/m 2 min 0 min 148 W/m 15,8 km/h (3 Bft) 95,74 %
24.11.2017 14:18 8,3 C 11,1 C 7,2 C 94 % 0 lf 1010,1 hPa 0,0 l/m 2 min 0 min 160 W/m 13,5 km/h (3 Bft) 97,87 %
24.11.2017 14:20 8,3 C 11,7 C 7,8 C 94 % 0 lf 1010,1 hPa 0,0 l/m 2 min 0 min 213 W/m 13,5 km/h (3 Bft) 97,83 %
24.11.2017 14:22 8,4 C 11,1 C 7,8 C 94 % 0 lf 1010,1 hPa 0,0 l/m 2 min 0 min 235 W/m 15,8 km/h (3 Bft) 97,87 %
24.11.2017 14:24 8,4 C 11,7 C 7,8 C 94 % 0 lf 1010,1 hPa 0,0 l/m 2 min 0 min 250 W/m 11,3 km/h (2 Bft) 97,87 %
24.11.2017 14:26 8,5 C 13,3 C 7,8 C 94 % 0 lf 1010,0 hPa 0,0 l/m 2 min 0 min 251 W/m 13,5 km/h (3 Bft) 95,74 %
24.11.2017 14:28 8,6 C 14,4 C 8,3 C 94 % 0 lf 1010,1 hPa 0,0 l/m 2 min 0 min 240 W/m 9,0 km/h (2 Bft) 97,87 %
24.11.2017 14:30 8,7 C 14,4 C 8,3 C 94 % 0 lf 1010,0 hPa 0,0 l/m 2 min 0 min 231 W/m 11,3 km/h (2 Bft) 97,87 %
24.11.2017 14:32 8,7 C 13,3 C 7,8 C 94 % 0 lf 1010,0 hPa 0,0 l/m 2 min 0 min 148 W/m 20,3 km/h (4 Bft) 97,83 %
24.11.2017 14:34 8,7 C 13,3 C 7,8 C 94 % 0 lf 1010,0 hPa 0,0 l/m 2 min 0 min 191 W/m 11,3 km/h (2 Bft) 97,87 %
24.11.2017 14:36 8,8 C 12,8 C 7,8 C 94 % 0 lf 1010,1 hPa 0,0 l/m 0 min 0 min 106 W/m 9,0 km/h (2 Bft) 97,87 %
24.11.2017 14:38 8,8 C 11,7 C 7,2 C 93 % 0 lf 1010,1 hPa 0,0 l/m 0 min 0 min 91 W/m 11,3 km/h (2 Bft) 97,87 %
24.11.2017 14:40 8,8 C 11,1 C 7,2 C 93 % 0 lf 1010,1 hPa 0,0 l/m 0 min 0 min 90 W/m 11,3 km/h (2 Bft) 97,87 %
24.11.2017 14:42 8,8 C 10,6 C 7,2 C 93 % 0 lf 1010,2 hPa 0,0 l/m 0 min 0 min 77 W/m 11,3 km/h (2 Bft) 95,74 %
24.11.2017 14:44 8,8 C 10,0 C 7,2 C 93 % 0 lf 1010,2 hPa 0,0 l/m 0 min 0 min 63 W/m 11,3 km/h (2 Bft) 91,30 %
24.11.2017 14:46 8,8 C 9,4 C 7,2 C 93 % 0 lf 1010,2 hPa 0,0 l/m 0 min 0 min 52 W/m 15,8 km/h (3 Bft) 97,87 %
24.11.2017 14:48 8,8 C 9,4 C 7,2 C 92 % 0 lf 1010,4 hPa 0,0 l/m 0 min 0 min 46 W/m 18,0 km/h (3 Bft) 97,87 %
24.11.2017 14:50 8,8 C 8,9 C 7,2 C 92 % 0 lf 1010,4 hPa 0,0 l/m 0 min 0 min 42 W/m 18,0 km/h (3 Bft) 95,74 %
24.11.2017 14:52 8,7 C 8,9 C 7,2 C 92 % 0 lf 1010,4 hPa 0,0 l/m 0 min 0 min 40 W/m 15,8 km/h (3 Bft) 97,87 %
24.11.2017 14:54 8,7 C 8,9 C 7,2 C 92 % 0 lf 1010,5 hPa 0,0 l/m 0 min 0 min 42 W/m 11,3 km/h (2 Bft) 97,87 %
24.11.2017 14:56 8,7 C 8,9 C 7,2 C 91 % 0 lf 1010,5 hPa 0,0 l/m 0 min 0 min 40 W/m 9,0 km/h (2 Bft) 93,48 %
24.11.2017 14:58 8,7 C 8,9 C 7,2 C 91 % 0 lf 1010,5 hPa 0,0 l/m 0 min 0 min 35 W/m 9,0 km/h (2 Bft) 95,74 %
24.11.2017 15:00 8,7 C 8,9 C 7,2 C 91 % 0 lf 1010,6 hPa 0,0 l/m 0 min 0 min 33 W/m 15,8 km/h (3 Bft) 89,36 %
24.11.2017 15:02 8,7 C 8,3 C 6,7 C 91 % 0 lf 1010,6 hPa 0,0 l/m 0 min 0 min 31 W/m 18,0 km/h (3 Bft) 93,62 %
24.11.2017 15:04 8,7 C 8,3 C 6,7 C 91 % 0 lf 1010,6 hPa 0,0 l/m 0 min 0 min 29 W/m 15,8 km/h (3 Bft) 91,49 %
24.11.2017 15:06 8,6 C 8,3 C 6,7 C 91 % 0 lf 1010,6 hPa 0,0 l/m 0 min 0 min 27 W/m 13,5 km/h (3 Bft) 86,96 %
24.11.2017 15:08 8,6 C 8,3 C 6,7 C 91 % 0 lf 1010,5 hPa 0,0 l/m 0 min 0 min 26 W/m 11,3 km/h (2 Bft) 93,62 %
24.11.2017 15:10 8,6 C 8,3 C 6,7 C 91 % 0 lf 1010,6 hPa 0,0 l/m 0 min 0 min 28 W/m 15,8 km/h (3 Bft) 89,36 %
24.11.2017 15:12 8,6 C 8,3 C 6,7 C 91 % 0 lf 1010,6 hPa 0,0 l/m 0 min 0 min 32 W/m 13,5 km/h (3 Bft) 87,23 %
24.11.2017 15:14 8,5 C 8,3 C 6,7 C 91 % 0 lf 1010,6 hPa 0,0 l/m 0 min 0 min 31 W/m 9,0 km/h (2 Bft) 89,36 %
24.11.2017 15:16 8,5 C 8,3 C 6,7 C 91 % 0 lf 1010,6 hPa 0,0 l/m 0 min 0 min 28 W/m 9,0 km/h (2 Bft) 91,49 %
24.11.2017 15:18 8,5 C 8,3 C 6,7 C 91 % 0 lf 1010,6 hPa 0,0 l/m 0 min 0 min 26 W/m 9,0 km/h (2 Bft) 93,48 %
24.11.2017 15:20 8,5 C 8,3 C 6,7 C 91 % 0 lf 1010,6 hPa 0,0 l/m 0 min 0 min 25 W/m 6,8 km/h (2 Bft) 93,62 %
24.11.2017 15:22 8,5 C 8,3 C 6,7 C 91 % 0 lf 1010,7 hPa 0,0 l/m 0 min 0 min 22 W/m 6,8 km/h (2 Bft) 93,62 %
24.11.2017 15:24 8,5 C 8,3 C 6,7 C 91 % 0 lf 1010,7 hPa 0,0 l/m 0 min 0 min 23 W/m 11,3 km/h (2 Bft) 93,62 %
24.11.2017 15:26 8,4 C 8,3 C 6,7 C 91 % 0 lf 1010,6 hPa 0,0 l/m 0 min 0 min 26 W/m 9,0 km/h (2 Bft) 93,62 %
24.11.2017 15:28 8,4 C 8,3 C 6,7 C 91 % 0 lf 1010,6 hPa 0,0 l/m 0 min 0 min 31 W/m 9,0 km/h (2 Bft) 95,74 %
24.11.2017 15:30 8,4 C 8,3 C 6,7 C 91 % 0 lf 1010,6 hPa 0,0 l/m 0 min 0 min 35 W/m 6,8 km/h (2 Bft) 95,65 %
24.11.2017 15:32 8,4 C 8,3 C 6,7 C 91 % 0 lf 1010,6 hPa 0,0 l/m 0 min 0 min 41 W/m 9,0 km/h (2 Bft) 93,62 %
24.11.2017 15:34 8,4 C 8,3 C 6,7 C 91 % 0 lf 1010,6 hPa 0,0 l/m 0 min 0 min 41 W/m 11,3 km/h (2 Bft) 93,62 %
24.11.2017 15:36 8,4 C 8,3 C 6,7 C 91 % 0 lf 1010,6 hPa 0,0 l/m 0 min 0 min 40 W/m 6,8 km/h (2 Bft) 93,62 %
24.11.2017 15:38 8,4 C 8,3 C 6,7 C 91 % 0 lf 1010,6 hPa 0,0 l/m 0 min 0 min 43 W/m 9,0 km/h (2 Bft) 95,74 %
24.11.2017 15:40 8,4 C 8,3 C 6,7 C 91 % 0 lf 1010,6 hPa 0,0 l/m 0 min 0 min 46 W/m 6,8 km/h (2 Bft) 93,62 %
24.11.2017 15:42 8,4 C 8,3 C 6,7 C 91 % 0 lf 1010,6 hPa 0,0 l/m 2 min 0 min 53 W/m 6,8 km/h (2 Bft) 93,48 %
24.11.2017 15:44 8,4 C 8,3 C 6,7 C 91 % 0 lf 1010,6 hPa 0,0 l/m 2 min 0 min 61 W/m 6,8 km/h (2 Bft) 91,49 %
24.11.2017 15:46 8,4 C 8,9 C 6,7 C 91 % 0 lf 1010,6 hPa 0,0 l/m 2 min 0 min 58 W/m 4,5 km/h (1 Bft) 95,74 %
24.11.2017 15:48 8,4 C 8,9 C 6,7 C 91 % 0 lf 1010,6 hPa 0,0 l/m 2 min 0 min 46 W/m 4,5 km/h (1 Bft) 95,74 %
24.11.2017 15:50 8,4 C 8,3 C 6,7 C 91 % 0 lf 1010,7 hPa 0,0 l/m 0 min 0 min 37 W/m 4,5 km/h (1 Bft) 95,74 %
24.11.2017 15:52 8,4 C 8,3 C 6,1 C 91 % 0 lf 1010,7 hPa 0,0 l/m 0 min 0 min 34 W/m 4,5 km/h (1 Bft) 95,74 %
24.11.2017 15:54 8,4 C 8,3 C 6,1 C 91 % 0 lf 1010,8 hPa 0,0 l/m 0 min 0 min 33 W/m 6,8 km/h (2 Bft) 100,00 %
24.11.2017 15:56 8,4 C 8,3 C 6,1 C 91 % 0 lf 1010,8 hPa 0,0 l/m 0 min 0 min 32 W/m 6,8 km/h (2 Bft) 100,00 %
24.11.2017 15:58 8,4 C 7,8 C 6,1 C 91 % 0 lf 1010,8 hPa 0,0 l/m 0 min 0 min 30 W/m 6,8 km/h (2 Bft) 100,00 %
24.11.2017 16:00 8,3 C 7,8 C 5,6 C 91 % 0 lf 1010,8 hPa 0,0 l/m 0 min 0 min 30 W/m 4,5 km/h (1 Bft) 100,00 %
24.11.2017 16:02 8,3 C 7,8 C 5,6 C 91 % 0 lf 1010,8 hPa 0,0 l/m 2 min 0 min 31 W/m 0,0 km/h (0 Bft) 100,00 %
24.11.2017 16:04 8,3 C 7,8 C 5,6 C 91 % 0 lf 1010,8 hPa 0,0 l/m 2 min 0 min 32 W/m 0,0 km/h (0 Bft) 100,00 %
24.11.2017 16:06 8,3 C 7,8 C 5,6 C 91 % 0 lf 1010,8 hPa 0,0 l/m 2 min 0 min 32 W/m 6,8 km/h (2 Bft) 100,00 %
24.11.2017 16:08 8,3 C 7,2 C 5,6 C 91 % 0 lf 1010,8 hPa 0,0 l/m 2 min 0 min 29 W/m 4,5 km/h (1 Bft) 100,00 %
24.11.2017 16:10 8,3 C 7,2 C 5,6 C 91 % 0 lf 1010,8 hPa 0,0 l/m 2 min 0 min 25 W/m 4,5 km/h (1 Bft) 100,00 %
24.11.2017 16:12 8,3 C 7,2 C 5,6 C 91 % 0 lf 1010,8 hPa 0,0 l/m 0 min 0 min 19 W/m 6,8 km/h (2 Bft) 100,00 %
24.11.2017 16:14 8,2 C 7,2 C 5,6 C 91 % 0 lf 1010,9 hPa 0,0 l/m 0 min 0 min 17 W/m 4,5 km/h (1 Bft) 100,00 %
24.11.2017 16:16 8,2 C 7,2 C 5,6 C 91 % 0 lf 1010,9 hPa 0,0 l/m 0 min 0 min 14 W/m 4,5 km/h (1 Bft) 100,00 %
24.11.2017 16:18 8,2 C 7,2 C 6,1 C 91 % 0 lf 1010,8 hPa 0,0 l/m 0 min 0 min 11 W/m 2,3 km/h (1 Bft) 100,00 %
24.11.2017 16:20 8,2 C 7,2 C 6,1 C 91 % 0 lf 1010,8 hPa 0,0 l/m 0 min 0 min 9 W/m 4,5 km/h (1 Bft) 100,00 %
24.11.2017 16:22 8,2 C 7,2 C 6,1 C 91 % 0 lf 1010,8 hPa 0,0 l/m 0 min 0 min 7 W/m 9,0 km/h (2 Bft) 97,87 %
24.11.2017 16:24 8,2 C 7,2 C 6,1 C 91 % 0 lf 1010,8 hPa 0,0 l/m 0 min 0 min 7 W/m 2,3 km/h (1 Bft) 97,87 %
24.11.2017 16:26 8,2 C 7,2 C 6,1 C 91 % 0 lf 1010,8 hPa 0,0 l/m 0 min 0 min 7 W/m 4,5 km/h (1 Bft) 100,00 %
24.11.2017 16:28 8,1 C 7,2 C 6,1 C 91 % 0 lf 1010,8 hPa 0,0 l/m 0 min 0 min 7 W/m 4,5 km/h (1 Bft) 100,00 %
24.11.2017 16:30 8,1 C 7,2 C 6,1 C 91 % 0 lf 1010,8 hPa 0,0 l/m 0 min 0 min 7 W/m 4,5 km/h (1 Bft) 97,87 %
24.11.2017 16:32 8,1 C 7,2 C 5,6 C 91 % 0 lf 1010,8 hPa 0,0 l/m 0 min 0 min 5 W/m 4,5 km/h (1 Bft) 100,00 %
24.11.2017 16:34 8,1 C 7,2 C 5,6 C 91 % 0 lf 1010,8 hPa 0,0 l/m 0 min 0 min 5 W/m 6,8 km/h (2 Bft) 100,00 %
24.11.2017 16:36 8,1 C 7,2 C 5,6 C 91 % 0 lf 1010,8 hPa 0,0 l/m 0 min 0 min 5 W/m 4,5 km/h (1 Bft) 100,00 %
24.11.2017 16:38 8,1 C 7,2 C 5,6 C 91 % 0 lf 1010,8 hPa 0,0 l/m 0 min 0 min 3 W/m 4,5 km/h (1 Bft) 100,00 %
24.11.2017 16:40 8,1 C 6,7 C 5,0 C 91 % 0 lf 1010,8 hPa 0,0 l/m 0 min 0 min 0 W/m 4,5 km/h (1 Bft) 100,00 %
24.11.2017 16:42 8,0 C 6,7 C 5,0 C 91 % 0 lf 1010,8 hPa 0,0 l/m 0 min 0 min 0 W/m 4,5 km/h (1 Bft) 97,87 %
24.11.2017 16:44 8,0 C 6,7 C 5,0 C 91 % 0 lf 1010,8 hPa 0,0 l/m 0 min 0 min 0 W/m 4,5 km/h (1 Bft) 100,00 %
24.11.2017 16:46 8,0 C 6,7 C 5,0 C 91 % 0 lf 1010,8 hPa 0,0 l/m 0 min 0 min 0 W/m 4,5 km/h (1 Bft) 97,87 %
24.11.2017 16:48 7,9 C 6,7 C 5,0 C 91 % 0 lf 1010,8 hPa 0,0 l/m 0 min 0 min 0 W/m 4,5 km/h (1 Bft) 100,00 %
24.11.2017 16:50 7,9 C 6,7 C 5,0 C 91 % 0 lf 1010,8 hPa 0,0 l/m 0 min 0 min 0 W/m 6,8 km/h (2 Bft) 100,00 %
24.11.2017 16:52 7,9 C 6,7 C 5,0 C 91 % 0 lf 1010,8 hPa 0,0 l/m 0 min 0 min 0 W/m 4,5 km/h (1 Bft) 97,83 %
24.11.2017 16:54 7,9 C 6,7 C 5,0 C 91 % 1 lf 1010,8 hPa 0,0 l/m 0 min 0 min 0 W/m 4,5 km/h (1 Bft) 97,87 %
24.11.2017 16:56 7,8 C 6,7 C 5,0 C 91 % 1 lf 1010,8 hPa 0,0 l/m 0 min 0 min 0 W/m 6,8 km/h (2 Bft) 97,87 %
24.11.2017 16:58 7,8 C 6,7 C 5,0 C 91 % 1 lf 1010,7 hPa 0,0 l/m 0 min 0 min 0 W/m 4,5 km/h (1 Bft) 97,87 %
24.11.2017 17:00 7,8 C 6,7 C 5,0 C 91 % 1 lf 1010,8 hPa 0,0 l/m 0 min 0 min 0 W/m 6,8 km/h (2 Bft) 97,87 %
24.11.2017 17:02 7,8 C 6,7 C 5,0 C 91 % 1 lf 1010,8 hPa 0,0 l/m 0 min 0 min 0 W/m 4,5 km/h (1 Bft) 93,62 %
24.11.2017 17:04 7,8 C 6,7 C 5,0 C 91 % 1 lf 1010,8 hPa 0,0 l/m 0 min 0 min 0 W/m 4,5 km/h (1 Bft) 95,65 %
24.11.2017 17:08 7,7 C 6,7 C 5,0 C 91 % 1 lf 1010,8 hPa 0,0 l/m 0 min 0 min 0 W/m 6,8 km/h (2 Bft) 96,81 %
24.11.2017 17:10 7,7 C 6,7 C 5,0 C 91 % 1 lf 1010,8 hPa 0,0 l/m 0 min 0 min 0 W/m 6,8 km/h (2 Bft) 97,87 %
24.11.2017 17:12 7,7 C 6,7 C 5,0 C 91 % 1 lf 1010,8 hPa 0,0 l/m 0 min 0 min 0 W/m 6,8 km/h (2 Bft) 91,49 %
24.11.2017 17:14 7,6 C 6,7 C 5,6 C 91 % 1 lf 1010,9 hPa 0,0 l/m 0 min 0 min 0 W/m 4,5 km/h (1 Bft) 95,74 %
24.11.2017 17:16 7,6 C 6,7 C 5,6 C 91 % 1 lf 1010,9 hPa 0,0 l/m 0 min 0 min 0 W/m 6,8 km/h (2 Bft) 93,48 %
24.11.2017 17:18 7,6 C 6,7 C 5,6 C 91 % 1 lf 1010,8 hPa 0,0 l/m 0 min 0 min 0 W/m 6,8 km/h (2 Bft) 93,62 %
24.11.2017 17:20 7,6 C 7,2 C 5,6 C 92 % 0 lf 1010,8 hPa 0,0 l/m 0 min 0 min 0 W/m 6,8 km/h (2 Bft) 95,74 %
24.11.2017 17:22 7,6 C 7,2 C 5,6 C 92 % 0 lf 1010,9 hPa 0,0 l/m 0 min 0 min 0 W/m 0,0 km/h (0 Bft) 93,88 %
24.11.2017 17:24 7,5 C 6,7 C 5,6 C 92 % 0 lf 1010,9 hPa 0,0 l/m 0 min 0 min 0 W/m 0,0 km/h (0 Bft) 94,29 %
24.11.2017 17:26 7,5 C 6,7 C 5,6 C 92 % 0 lf 1010,9 hPa 0,0 l/m 0 min 0 min 0 W/m 0,0 km/h (0 Bft) 95,74 %
24.11.2017 17:28 7,5 C 6,7 C 5,6 C 92 % 0 lf 1011,0 hPa 0,0 l/m 0 min 0 min 0 W/m 0,0 km/h (0 Bft) 97,83 %
24.11.2017 17:30 7,4 C 7,2 C 5,6 C 92 % 0 lf 1011,0 hPa 0,0 l/m 0 min 0 min 0 W/m 2,3 km/h (1 Bft) 97,87 %
24.11.2017 17:32 7,4 C 7,2 C 6,1 C 92 % 0 lf 1010,9 hPa 0,0 l/m 0 min 0 min 0 W/m 2,3 km/h (1 Bft) 95,74 %
24.11.2017 17:34 7,4 C 7,2 C 6,1 C 92 % 0 lf 1010,9 hPa 0,0 l/m 0 min 0 min 0 W/m 4,5 km/h (1 Bft) 93,62 %
24.11.2017 17:36 7,4 C 7,2 C 6,1 C 92 % 0 lf 1010,8 hPa 0,0 l/m 0 min 0 min 0 W/m 2,3 km/h (1 Bft) 97,87 %
24.11.2017 17:38 7,4 C 7,2 C 6,1 C 92 % 0 lf 1010,8 hPa 0,0 l/m 0 min 0 min 0 W/m 4,5 km/h (1 Bft) 93,62 %
24.11.2017 17:40 7,4 C 7,2 C 6,1 C 92 % 0 lf 1010,8 hPa 0,0 l/m 0 min 0 min 0 W/m 2,3 km/h (1 Bft) 97,83 %
24.11.2017 17:42 7,4 C 7,2 C 6,1 C 92 % 0 lf 1010,8 hPa 0,0 l/m 0 min 0 min 0 W/m 6,8 km/h (2 Bft) 97,87 %
24.11.2017 17:44 7,4 C 7,2 C 6,1 C 92 % 0 lf 1010,8 hPa 0,0 l/m 0 min 0 min 0 W/m 4,5 km/h (1 Bft) 97,87 %
24.11.2017 17:46 7,4 C 7,2 C 5,6 C 92 % 0 lf 1010,8 hPa 0,0 l/m 0 min 0 min 0 W/m 2,3 km/h (1 Bft) 93,62 %
24.11.2017 17:48 7,4 C 7,2 C 5,6 C 93 % 0 lf 1010,8 hPa 0,0 l/m 0 min 0 min 0 W/m 2,3 km/h (1 Bft) 93,62 %
24.11.2017 17:50 7,4 C 7,2 C 5,6 C 93 % 0 lf 1010,9 hPa 0,0 l/m 0 min 0 min 0 W/m 4,5 km/h (1 Bft) 97,87 %
24.11.2017 17:52 7,4 C 7,2 C 5,6 C 93 % 0 lf 1010,9 hPa 0,0 l/m 0 min 0 min 0 W/m 4,5 km/h (1 Bft) 97,83 %
24.11.2017 17:54 7,4 C 6,7 C 5,6 C 93 % 0 lf 1010,8 hPa 0,0 l/m 0 min 0 min 0 W/m 2,3 km/h (1 Bft) 97,87 %
24.11.2017 17:56 7,4 C 6,7 C 5,6 C 93 % 0 lf 1010,9 hPa 0,0 l/m 0 min 0 min 0 W/m 2,3 km/h (1 Bft) 97,87 %
24.11.2017 17:58 7,4 C 6,7 C 5,6 C 93 % 0 lf 1010,9 hPa 0,0 l/m 0 min 0 min 0 W/m 2,3 km/h (1 Bft) 97,87 %
24.11.2017 18:00 7,4 C 6,7 C 5,6 C 93 % 0 lf 1010,9 hPa 0,0 l/m 0 min 0 min 0 W/m 0,0 km/h (0 Bft) 95,74 %
24.11.2017 18:02 7,4 C 6,7 C 5,6 C 93 % 0 lf 1010,9 hPa 0,0 l/m 0 min 0 min 0 W/m 0,0 km/h (0 Bft) 97,87 %
24.11.2017 18:04 7,4 C 6,7 C 5,6 C 93 % 0 lf 1010,9 hPa 0,0 l/m 0 min 0 min 0 W/m 0,0 km/h (0 Bft) 97,83 %
24.11.2017 18:06 7,4 C 6,7 C 5,6 C 93 % 0 lf 1011,0 hPa 0,0 l/m 0 min 0 min 0 W/m 0,0 km/h (0 Bft) 97,87 %
24.11.2017 18:10 7,4 C 6,7 C 5,6 C 93 % 0 lf 1011,0 hPa 0,0 l/m 0 min 0 min 0 W/m 0,0 km/h (0 Bft) 98,02 %
24.11.2017 18:12 7,4 C 6,7 C 5,0 C 93 % 0 lf 1011,0 hPa 0,0 l/m 0 min 0 min 0 W/m 0,0 km/h (0 Bft) 97,87 %
24.11.2017 18:14 7,4 C 6,7 C 5,0 C 93 % 0 lf 1011,0 hPa 0,0 l/m 0 min 0 min 0 W/m 0,0 km/h (0 Bft) 97,83 %
24.11.2017 18:16 7,4 C 6,7 C 5,6 C 93 % 0 lf 1011,0 hPa 0,0 l/m 0 min 0 min 0 W/m 0,0 km/h (0 Bft) 95,74 %
24.11.2017 18:18 7,4 C 6,7 C 5,0 C 93 % 0 lf 1011,0 hPa 0,0 l/m 0 min 0 min 0 W/m 0,0 km/h (0 Bft) 95,74 %
24.11.2017 18:20 7,4 C 6,1 C 5,0 C 93 % 0 lf 1010,9 hPa 0,0 l/m 0 min 0 min 0 W/m 0,0 km/h (0 Bft) 95,74 %
24.11.2017 18:22 7,4 C 6,1 C 5,0 C 93 % 0 lf 1010,9 hPa 0,0 l/m 0 min 0 min 0 W/m 0,0 km/h (0 Bft) 97,87 %
24.11.2017 18:24 7,4 C 6,1 C 5,0 C 93 % 1 lf 1011,0 hPa 0,0 l/m 0 min 0 min 0 W/m 0,0 km/h (0 Bft) 97,87 %
24.11.2017 18:26 7,4 C 6,1 C 5,0 C 93 % 1 lf 1011,0 hPa 0,0 l/m 0 min 0 min 0 W/m 0,0 km/h (0 Bft) 97,83 %
24.11.2017 18:28 7,3 C 6,1 C 5,0 C 93 % 1 lf 1011,0 hPa 0,0 l/m 0 min 0 min 0 W/m 0,0 km/h (0 Bft) 97,87 %
24.11.2017 18:30 7,3 C 6,1 C 5,0 C 93 % 1 lf 1011,0 hPa 0,0 l/m 0 min 0 min 0 W/m 0,0 km/h (0 Bft) 100,00 %
24.11.2017 18:32 7,3 C 6,1 C 5,0 C 93 % 1 lf 1011,0 hPa 0,0 l/m 0 min 0 min 0 W/m 0,0 km/h (0 Bft) 97,87 %
24.11.2017 18:34 7,3 C 6,1 C 5,0 C 93 % 1 lf 1011,0 hPa 0,0 l/m 0 min 0 min 0 W/m 0,0 km/h (0 Bft) 95,74 %
24.11.2017 18:36 7,3 C 6,1 C 5,0 C 93 % 1 lf 1011,0 hPa 0,0 l/m 0 min 0 min 0 W/m 0,0 km/h (0 Bft) 97,87 %
24.11.2017 18:38 7,3 C 6,1 C 5,0 C 93 % 1 lf 1011,0 hPa 0,0 l/m 0 min 0 min 0 W/m 0,0 km/h (0 Bft) 97,83 %
24.11.2017 18:40 7,3 C 6,1 C 5,0 C 93 % 1 lf 1011,0 hPa 0,0 l/m 0 min 0 min 0 W/m 0,0 km/h (0 Bft) 97,87 %
24.11.2017 18:42 7,2 C 6,1 C 5,0 C 93 % 1 lf 1010,9 hPa 0,0 l/m 0 min 0 min 0 W/m 0,0 km/h (0 Bft) 95,74 %
24.11.2017 18:44 7,2 C 6,1 C 5,0 C 93 % 1 lf 1011,0 hPa 0,0 l/m 0 min 0 min 0 W/m 0,0 km/h (0 Bft) 93,62 %
24.11.2017 18:46 7,2 C 6,1 C 5,0 C 93 % 1 lf 1010,9 hPa 0,0 l/m 0 min 0 min 0 W/m 0,0 km/h (0 Bft) 93,62 %
24.11.2017 18:48 7,2 C 6,1 C 5,0 C 93 % 1 lf 1011,0 hPa 0,0 l/m 0 min 0 min 0 W/m 0,0 km/h (0 Bft) 93,62 %
24.11.2017 18:50 7,1 C 6,1 C 4,4 C 93 % 1 lf 1011,0 hPa 0,0 l/m 0 min 0 min 0 W/m 0,0 km/h (0 Bft) 91,84 %
24.11.2017 18:52 7,1 C 6,1 C 4,4 C 93 % 1 lf 1011,0 hPa 0,0 l/m 0 min 0 min 0 W/m 0,0 km/h (0 Bft) 97,87 %
24.11.2017 18:54 7,1 C 6,1 C 4,4 C 93 % 2 lf 1011,0 hPa 0,0 l/m 0 min 0 min 0 W/m 0,0 km/h (0 Bft) 95,74 %
24.11.2017 18:56 7,1 C 6,1 C 4,4 C 93 % 2 lf 1011,1 hPa 0,0 l/m 0 min 0 min 0 W/m 0,0 km/h (0 Bft) 95,74 %
24.11.2017 18:58 7,0 C 6,1 C 4,4 C 93 % 2 lf 1011,2 hPa 0,0 l/m 0 min 0 min 0 W/m 0,0 km/h (0 Bft) 89,36 %
24.11.2017 19:00 7,0 C 6,1 C 4,4 C 93 % 2 lf 1011,1 hPa 0,0 l/m 0 min 0 min 0 W/m 0,0 km/h (0 Bft) 93,48 %
24.11.2017 19:02 7,0 C 6,1 C 4,4 C 93 % 2 lf 1011,0 hPa 0,0 l/m 0 min 0 min 0 W/m 0,0 km/h (0 Bft) 93,62 %
24.11.2017 19:04 6,9 C 6,1 C 4,4 C 93 % 2 lf 1011,1 hPa 0,0 l/m 0 min 0 min 0 W/m 0,0 km/h (0 Bft) 95,74 %
24.11.2017 19:06 6,9 C 6,1 C 4,4 C 93 % 2 lf 1011,1 hPa 0,0 l/m 0 min 0 min 0 W/m 0,0 km/h (0 Bft) 95,74 %
24.11.2017 19:08 6,9 C 6,1 C 4,4 C 93 % 2 lf 1011,1 hPa 0,0 l/m 0 min 0 min 0 W/m 0,0 km/h (0 Bft) 95,74 %
24.11.2017 19:10 6,9 C 6,1 C 5,0 C 93 % 2 lf 1011,1 hPa 0,0 l/m 0 min 0 min 0 W/m 0,0 km/h (0 Bft) 95,74 %
24.11.2017 19:12 6,9 C 6,1 C 5,0 C 93 % 2 lf 1011,2 hPa 0,0 l/m 0 min 0 min 0 W/m 0,0 km/h (0 Bft) 95,65 %
24.11.2017 19:14 6,9 C 6,1 C 5,0 C 93 % 2 lf 1011,2 hPa 0,0 l/m 0 min 0 min 0 W/m 0,0 km/h (0 Bft) 93,62 %
24.11.2017 19:16 6,9 C 6,1 C 5,0 C 93 % 2 lf 1011,2 hPa 0,0 l/m 0 min 0 min 0 W/m 0,0 km/h (0 Bft) 95,74 %
24.11.2017 19:18 6,9 C 6,1 C 5,0 C 93 % 2 lf 1011,2 hPa 0,0 l/m 0 min 0 min 0 W/m 0,0 km/h (0 Bft) 97,87 %
24.11.2017 19:20 6,8 C 6,1 C 5,0 C 93 % 2 lf 1011,2 hPa 0,0 l/m 0 min 0 min 0 W/m 0,0 km/h (0 Bft) 97,87 %
24.11.2017 19:22 6,8 C 6,1 C 5,0 C 93 % 2 lf 1011,2 hPa 0,0 l/m 0 min 0 min 0 W/m 0,0 km/h (0 Bft) 97,87 %
24.11.2017 19:24 6,8 C 6,1 C 5,0 C 94 % 2 lf 1011,2 hPa 0,0 l/m 0 min 0 min 0 W/m 0,0 km/h (0 Bft) 95,65 %
24.11.2017 19:26 6,8 C 6,1 C 5,0 C 94 % 2 lf 1011,2 hPa 0,0 l/m 0 min 0 min 0 W/m 6,8 km/h (2 Bft) 97,87 %
24.11.2017 19:28 6,8 C 6,1 C 5,0 C 94 % 2 lf 1011,2 hPa 0,0 l/m 0 min 0 min 0 W/m 6,8 km/h (2 Bft) 100,00 %
24.11.2017 19:30 6,8 C 6,1 C 5,0 C 94 % 2 lf 1011,2 hPa 0,0 l/m 0 min 0 min 0 W/m 6,8 km/h (2 Bft) 95,74 %
24.11.2017 19:32 6,8 C 6,1 C 5,0 C 94 % 2 lf 1011,3 hPa 0,0 l/m 0 min 0 min 0 W/m 9,0 km/h (2 Bft) 91,49 %
24.11.2017 19:34 6,8 C 6,1 C 5,0 C 94 % 2 lf 1011,2 hPa 0,0 l/m 0 min 0 min 0 W/m 4,5 km/h (1 Bft) 97,87 %
24.11.2017 19:36 6,8 C 6,1 C 5,0 C 94 % 2 lf 1011,2 hPa 0,0 l/m 0 min 0 min 0 W/m 6,8 km/h (2 Bft) 95,83 %
24.11.2017 19:38 6,8 C 6,1 C 5,0 C 94 % 2 lf 1011,2 hPa 0,0 l/m 0 min 0 min 0 W/m 6,8 km/h (2 Bft) 97,87 %
24.11.2017 19:40 6,8 C 6,7 C 5,6 C 94 % 2 lf 1011,2 hPa 0,0 l/m 0 min 0 min 0 W/m 4,5 km/h (1 Bft) 97,87 %
24.11.2017 19:42 6,8 C 6,7 C 5,6 C 94 % 2 lf 1011,2 hPa 0,0 l/m 0 min 0 min 0 W/m 4,5 km/h (1 Bft) 97,87 %
24.11.2017 19:44 6,8 C 6,7 C 5,6 C 94 % 2 lf 1011,3 hPa 0,0 l/m 0 min 0 min 0 W/m 6,8 km/h (2 Bft) 97,83 %
24.11.2017 19:46 6,8 C 6,7 C 5,6 C 94 % 2 lf 1011,3 hPa 0,0 l/m 0 min 0 min 0 W/m 4,5 km/h (1 Bft) 97,87 %
24.11.2017 19:48 6,8 C 6,7 C 5,6 C 94 % 2 lf 1011,3 hPa 0,0 l/m 0 min 0 min 0 W/m 4,5 km/h (1 Bft) 97,87 %
24.11.2017 19:50 6,8 C 6,7 C 5,6 C 94 % 2 lf 1011,4 hPa 0,0 l/m 0 min 0 min 0 W/m 2,3 km/h (1 Bft) 100,00 %
24.11.2017 19:52 6,8 C 6,7 C 5,6 C 94 % 2 lf 1011,4 hPa 0,0 l/m 0 min 0 min 0 W/m 4,5 km/h (1 Bft) 93,62 %
24.11.2017 19:54 6,8 C 6,7 C 5,6 C 94 % 2 lf 1011,4 hPa 0,0 l/m 0 min 0 min 0 W/m 2,3 km/h (1 Bft) 97,87 %
24.11.2017 19:56 6,8 C 6,7 C 5,6 C 94 % 2 lf 1011,4 hPa 0,0 l/m 0 min 0 min 0 W/m 2,3 km/h (1 Bft) 93,48 %
24.11.2017 19:58 6,8 C 6,7 C 5,6 C 94 % 2 lf 1011,4 hPa 0,0 l/m 0 min 0 min 0 W/m 2,3 km/h (1 Bft) 97,87 %
24.11.2017 20:00 6,8 C 6,7 C 5,6 C 95 % 2 lf 1011,4 hPa 0,0 l/m 0 min 0 min 0 W/m 2,3 km/h (1 Bft) 97,87 %
24.11.2017 20:02 6,8 C 6,7 C 5,6 C 95 % 2 lf 1011,4 hPa 0,0 l/m 0 min 0 min 0 W/m 0,0 km/h (0 Bft) 97,87 %
24.11.2017 20:04 6,8 C 6,7 C 5,6 C 95 % 1 lf 1011,4 hPa 0,0 l/m 0 min 0 min 0 W/m 0,0 km/h (0 Bft) 91,49 %
24.11.2017 20:06 6,8 C 6,7 C 5,6 C 95 % 2 lf 1011,4 hPa 0,0 l/m 0 min 0 min 0 W/m 0,0 km/h (0 Bft) 89,36 %
24.11.2017 20:08 6,8 C 6,7 C 5,6 C 95 % 1 lf 1011,4 hPa 0,0 l/m 0 min 0 min 0 W/m 0,0 km/h (0 Bft) 97,83 %
24.11.2017 20:10 6,8 C 6,7 C 5,6 C 95 % 1 lf 1011,4 hPa 0,0 l/m 0 min 0 min 0 W/m 0,0 km/h (0 Bft) 97,87 %
24.11.2017 20:12 6,8 C 6,7 C 5,6 C 95 % 1 lf 1011,4 hPa 0,0 l/m 0 min 0 min 0 W/m 0,0 km/h (0 Bft) 95,74 %
24.11.2017 20:14 6,8 C 6,7 C 5,6 C 95 % 1 lf 1011,4 hPa 0,0 l/m 0 min 0 min 0 W/m 0,0 km/h (0 Bft) 97,87 %
24.11.2017 20:16 6,8 C 6,7 C 5,6 C 95 % 1 lf 1011,3 hPa 0,0 l/m 0 min 0 min 0 W/m 0,0 km/h (0 Bft) 97,87 %
24.11.2017 20:18 6,8 C 6,7 C 5,6 C 95 % 1 lf 1011,3 hPa 0,0 l/m 0 min 0 min 0 W/m 4,5 km/h (1 Bft) 97,87 %
24.11.2017 20:20 6,8 C 6,7 C 5,6 C 95 % 1 lf 1011,3 hPa 0,0 l/m 0 min 0 min 0 W/m 4,5 km/h (1 Bft) 97,83 %
24.11.2017 20:22 6,8 C 6,7 C 5,6 C 95 % 1 lf 1011,2 hPa 0,0 l/m 0 min 0 min 0 W/m 4,5 km/h (1 Bft) 97,87 %
24.11.2017 20:24 6,8 C 6,7 C 5,6 C 95 % 1 lf 1011,2 hPa 0,0 l/m 0 min 0 min 0 W/m 4,5 km/h (1 Bft) 97,87 %
24.11.2017 20:26 6,8 C 6,7 C 5,6 C 95 % 1 lf 1011,2 hPa 0,0 l/m 0 min 0 min 0 W/m 4,5 km/h (1 Bft) 93,62 %
24.11.2017 20:28 6,9 C 6,7 C 5,6 C 95 % 1 lf 1011,2 hPa 0,0 l/m 0 min 0 min 0 W/m 4,5 km/h (1 Bft) 97,87 %
24.11.2017 20:30 6,9 C 6,7 C 5,6 C 95 % 1 lf 1011,1 hPa 0,0 l/m 0 min 0 min 0 W/m 4,5 km/h (1 Bft) 95,74 %
24.11.2017 20:32 6,9 C 6,7 C 5,6 C 95 % 1 lf 1011,2 hPa 0,0 l/m 0 min 0 min 0 W/m 4,5 km/h (1 Bft) 97,83 %
24.11.2017 20:34 6,9 C 6,7 C 5,6 C 95 % 1 lf 1011,2 hPa 0,0 l/m 0 min 0 min 0 W/m 6,8 km/h (2 Bft) 95,74 %
24.11.2017 20:36 6,9 C 6,7 C 5,6 C 95 % 1 lf 1011,2 hPa 0,0 l/m 0 min 0 min 0 W/m 6,8 km/h (2 Bft) 100,00 %
24.11.2017 20:38 6,9 C 6,7 C 5,6 C 95 % 1 lf 1011,2 hPa 0,0 l/m 0 min 0 min 0 W/m 6,8 km/h (2 Bft) 100,00 %
24.11.2017 20:40 6,9 C 6,7 C 5,6 C 95 % 1 lf 1011,2 hPa 0,0 l/m 0 min 0 min 0 W/m 6,8 km/h (2 Bft) 97,87 %
24.11.2017 20:42 6,9 C 6,7 C 5,6 C 95 % 1 lf 1011,1 hPa 0,0 l/m 0 min 0 min 0 W/m 4,5 km/h (1 Bft) 97,87 %
24.11.2017 20:44 6,9 C 6,7 C 5,6 C 95 % 0 lf 1011,1 hPa 0,0 l/m 0 min 0 min 0 W/m 6,8 km/h (2 Bft) 97,83 %
24.11.2017 20:46 6,9 C 6,7 C 5,6 C 95 % 0 lf 1011,1 hPa 0,0 l/m 0 min 0 min 0 W/m 4,5 km/h (1 Bft) 97,87 %
24.11.2017 20:48 6,9 C 6,7 C 5,6 C 95 % 0 lf 1011,2 hPa 0,0 l/m 0 min 0 min 0 W/m 4,5 km/h (1 Bft) 95,74 %
24.11.2017 20:50 6,9 C 6,7 C 5,6 C 95 % 0 lf 1011,1 hPa 0,0 l/m 0 min 0 min 0 W/m 2,3 km/h (1 Bft) 97,87 %
24.11.2017 20:52 6,9 C 6,7 C 5,6 C 95 % 0 lf 1011,1 hPa 0,0 l/m 0 min 0 min 0 W/m 2,3 km/h (1 Bft) 95,74 %
24.11.2017 20:54 7,0 C 6,7 C 5,6 C 96 % 0 lf 1011,1 hPa 0,0 l/m 0 min 0 min 0 W/m 2,3 km/h (1 Bft) 95,65 %
24.11.2017 20:56 7,0 C 6,7 C 5,6 C 96 % 0 lf 1011,1 hPa 0,0 l/m 0 min 0 min 0 W/m 4,5 km/h (1 Bft) 95,74 %
24.11.2017 20:58 7,0 C 6,7 C 5,6 C 96 % 0 lf 1011,1 hPa 0,0 l/m 0 min 0 min 0 W/m 4,5 km/h (1 Bft) 93,62 %
24.11.2017 21:00 7,0 C 6,7 C 5,6 C 96 % 0 lf 1011,1 hPa 0,0 l/m 0 min 0 min 0 W/m 4,5 km/h (1 Bft) 95,74 %
24.11.2017 21:02 7,0 C 6,7 C 5,6 C 96 % 0 lf 1011,1 hPa 0,0 l/m 0 min 0 min 0 W/m 4,5 km/h (1 Bft) 95,74 %
24.11.2017 21:04 7,0 C 6,7 C 5,6 C 96 % 0 lf 1011,0 hPa 0,0 l/m 0 min 0 min 0 W/m 4,5 km/h (1 Bft) 93,62 %
24.11.2017 21:06 7,0 C 6,7 C 5,6 C 96 % 0 lf 1011,0 hPa 0,0 l/m 0 min 0 min 0 W/m 4,5 km/h (1 Bft) 95,65 %
24.11.2017 21:08 7,0 C 6,7 C 5,6 C 96 % 0 lf 1011,0 hPa 0,0 l/m 0 min 0 min 0 W/m 2,3 km/h (1 Bft) 93,62 %
24.11.2017 21:10 7,0 C 6,7 C 5,6 C 96 % 0 lf 1011,0 hPa 0,0 l/m 0 min 0 min 0 W/m 0,0 km/h (0 Bft) 97,87 %
24.11.2017 21:12 7,0 C 6,7 C 5,6 C 96 % 0 lf 1011,0 hPa 0,0 l/m 0 min 0 min 0 W/m 0,0 km/h (0 Bft) 97,14 %
24.11.2017 21:14 7,0 C 6,7 C 5,6 C 96 % 0 lf 1011,0 hPa 0,0 l/m 0 min 0 min 0 W/m 0,0 km/h (0 Bft) 93,62 %
24.11.2017 21:16 7,0 C 6,7 C 5,6 C 96 % 0 lf 1011,0 hPa 0,0 l/m 0 min 0 min 0 W/m 0,0 km/h (0 Bft) 97,87 %
24.11.2017 21:18 7,0 C 6,7 C 5,6 C 96 % 0 lf 1011,1 hPa 0,0 l/m 0 min 0 min 0 W/m 0,0 km/h (0 Bft) 97,87 %
24.11.2017 21:20 7,0 C 6,7 C 5,6 C 96 % 0 lf 1011,1 hPa 0,0 l/m 0 min 0 min 0 W/m 0,0 km/h (0 Bft) 97,87 %
24.11.2017 21:22 7,0 C 6,7 C 5,6 C 96 % 0 lf 1011,0 hPa 0,0 l/m 0 min 0 min 0 W/m 0,0 km/h (0 Bft) 97,83 %
24.11.2017 21:24 7,0 C 6,7 C 5,6 C 96 % 0 lf 1011,0 hPa 0,0 l/m 0 min 0 min 0 W/m 0,0 km/h (0 Bft) 97,87 %
24.11.2017 21:26 7,0 C 6,7 C 5,6 C 96 % 0 lf 1011,0 hPa 0,0 l/m 0 min 0 min 0 W/m 0,0 km/h (0 Bft) 95,74 %
24.11.2017 21:28 7,0 C 6,7 C 5,6 C 96 % 0 lf 1011,0 hPa 0,0 l/m 0 min 0 min 0 W/m 0,0 km/h (0 Bft) 97,87 %
24.11.2017 21:30 7,0 C 6,7 C 5,6 C 96 % 0 lf 1011,0 hPa 0,0 l/m 0 min 0 min 0 W/m 0,0 km/h (0 Bft) 95,74 %
24.11.2017 21:32 7,0 C 6,7 C 5,6 C 96 % 0 lf 1011,0 hPa 0,0 l/m 0 min 0 min 0 W/m 0,0 km/h (0 Bft) 95,65 %
24.11.2017 21:34 7,0 C 6,7 C 5,6 C 96 % 0 lf 1011,0 hPa 0,0 l/m 0 min 0 min 0 W/m 0,0 km/h (0 Bft) 95,74 %
24.11.2017 21:36 7,0 C 6,7 C 5,6 C 96 % 0 lf 1011,0 hPa 0,0 l/m 0 min 0 min 0 W/m 0,0 km/h (0 Bft) 100,00 %
24.11.2017 21:38 6,9 C 6,7 C 5,6 C 96 % 0 lf 1011,0 hPa 0,0 l/m 0 min 0 min 0 W/m 0,0 km/h (0 Bft) 97,87 %
24.11.2017 21:40 6,9 C 6,7 C 5,6 C 96 % 0 lf 1010,9 hPa 0,0 l/m 0 min 0 min 0 W/m 0,0 km/h (0 Bft) 93,62 %
24.11.2017 21:42 6,9 C 6,7 C 5,6 C 96 % 0 lf 1010,8 hPa 0,0 l/m 0 min 0 min 0 W/m 0,0 km/h (0 Bft) 95,74 %
24.11.2017 21:44 6,9 C 6,7 C 5,6 C 96 % 0 lf 1010,9 hPa 0,0 l/m 0 min 0 min 0 W/m 0,0 km/h (0 Bft) 100,00 %
24.11.2017 21:46 6,9 C 6,7 C 5,6 C 96 % 0 lf 1010,9 hPa 0,0 l/m 0 min 0 min 0 W/m 0,0 km/h (0 Bft) 95,74 %
24.11.2017 21:48 6,9 C 6,7 C 5,6 C 96 % 0 lf 1010,8 hPa 0,0 l/m 0 min 0 min 0 W/m 0,0 km/h (0 Bft) 100,00 %
24.11.2017 21:50 6,9 C 6,7 C 5,6 C 96 % 0 lf 1010,8 hPa 0,0 l/m 0 min 0 min 0 W/m 0,0 km/h (0 Bft) 97,87 %
24.11.2017 21:52 6,9 C 6,7 C 5,6 C 96 % 0 lf 1010,8 hPa 0,0 l/m 0 min 0 min 0 W/m 0,0 km/h (0 Bft) 100,00 %
24.11.2017 21:54 6,9 C 6,7 C 5,6 C 96 % 0 lf 1010,8 hPa 0,0 l/m 0 min 0 min 0 W/m 0,0 km/h (0 Bft) 100,00 %
24.11.2017 21:56 6,9 C 6,7 C 5,6 C 96 % 0 lf 1010,7 hPa 0,0 l/m 0 min 0 min 0 W/m 0,0 km/h (0 Bft) 100,00 %
24.11.2017 21:58 6,9 C 6,7 C 5,6 C 96 % 0 lf 1010,7 hPa 0,0 l/m 0 min 0 min 0 W/m 0,0 km/h (0 Bft) 100,00 %
24.11.2017 22:00 6,9 C 6,7 C 5,6 C 96 % 0 lf 1010,7 hPa 0,0 l/m 0 min 0 min 0 W/m 0,0 km/h (0 Bft) 100,00 %
24.11.2017 22:02 6,9 C 6,7 C 5,6 C 96 % 0 lf 1010,8 hPa 0,0 l/m 0 min 0 min 0 W/m 0,0 km/h (0 Bft) 97,87 %
24.11.2017 22:04 6,9 C 6,7 C 5,6 C 96 % 0 lf 1010,8 hPa 0,0 l/m 0 min 0 min 0 W/m 0,0 km/h (0 Bft) 97,87 %
24.11.2017 22:06 6,9 C 6,7 C 5,6 C 96 % 0 lf 1010,8 hPa 0,0 l/m 0 min 0 min 0 W/m 0,0 km/h (0 Bft) 97,87 %
24.11.2017 22:08 6,9 C 6,7 C 5,6 C 96 % 0 lf 1010,8 hPa 0,0 l/m 0 min 0 min 0 W/m 4,5 km/h (1 Bft) 100,00 %
24.11.2017 22:10 6,9 C 6,7 C 5,6 C 96 % 0 lf 1010,8 hPa 0,0 l/m 0 min 0 min 0 W/m 4,5 km/h (1 Bft) 100,00 %
24.11.2017 22:12 6,9 C 6,7 C 5,6 C 96 % 0 lf 1010,8 hPa 0,0 l/m 0 min 0 min 0 W/m 6,8 km/h (2 Bft) 100,00 %
24.11.2017 22:14 6,9 C 6,7 C 5,6 C 96 % 0 lf 1010,7 hPa 0,0 l/m 0 min 0 min 0 W/m 6,8 km/h (2 Bft) 100,00 %
24.11.2017 22:16 6,9 C 6,7 C 5,6 C 96 % 0 lf 1010,7 hPa 0,0 l/m 0 min 0 min 0 W/m 6,8 km/h (2 Bft) 95,74 %
24.11.2017 22:18 6,9 C 6,7 C 5,6 C 96 % 0 lf 1010,7 hPa 0,0 l/m 0 min 0 min 0 W/m 6,8 km/h (2 Bft) 97,87 %
24.11.2017 22:20 6,9 C 6,7 C 5,6 C 96 % 0 lf 1010,7 hPa 0,0 l/m 0 min 0 min 0 W/m 6,8 km/h (2 Bft) 100,00 %
24.11.2017 22:22 6,9 C 6,7 C 5,6 C 96 % 0 lf 1010,7 hPa 0,0 l/m 0 min 0 min 0 W/m 2,3 km/h (1 Bft) 97,87 %
24.11.2017 22:24 6,9 C 6,1 C 5,6 C 96 % 0 lf 1010,7 hPa 0,0 l/m 0 min 0 min 0 W/m 2,3 km/h (1 Bft) 100,00 %
24.11.2017 22:26 6,8 C 6,1 C 5,6 C 96 % 1 lf 1010,7 hPa 0,0 l/m 0 min 0 min 0 W/m 2,3 km/h (1 Bft) 97,87 %
24.11.2017 22:28 6,8 C 6,1 C 5,6 C 96 % 1 lf 1010,7 hPa 0,0 l/m 0 min 0 min 0 W/m 4,5 km/h (1 Bft) 97,87 %
24.11.2017 22:30 6,8 C 6,7 C 5,6 C 96 % 1 lf 1010,7 hPa 0,0 l/m 0 min 0 min 0 W/m 4,5 km/h (1 Bft) 95,74 %
24.11.2017 22:32 6,8 C 6,7 C 5,6 C 96 % 1 lf 1010,7 hPa 0,0 l/m 0 min 2 min 0 W/m 0,0 km/h (0 Bft) 93,48 %
24.11.2017 22:34 6,8 C 6,7 C 5,6 C 96 % 2 lf 1010,7 hPa 0,0 l/m 0 min 2 min 0 W/m 0,0 km/h (0 Bft) 95,74 %
24.11.2017 22:36 6,8 C 6,7 C 5,6 C 96 % 4 lf 1010,7 hPa 0,0 l/m 0 min 2 min 0 W/m 0,0 km/h (0 Bft) 95,74 %
24.11.2017 22:38 6,8 C 6,7 C 5,6 C 96 % 9 lf 1010,6 hPa 0,0 l/m 0 min 0 min 0 W/m 0,0 km/h (0 Bft) 93,62 %
24.11.2017 22:40 6,8 C 6,7 C 5,6 C 96 % 11 lf 1010,6 hPa 0,0 l/m 0 min 2 min 0 W/m 0,0 km/h (0 Bft) 95,74 %
24.11.2017 22:42 6,8 C 6,7 C 5,6 C 96 % 12 lf 1010,6 hPa 0,0 l/m 0 min 2 min 0 W/m 0,0 km/h (0 Bft) 93,62 %
24.11.2017 22:44 6,8 C 6,7 C 5,6 C 96 % 13 lf 1010,5 hPa 0,0 l/m 0 min 0 min 0 W/m 0,0 km/h (0 Bft) 93,48 %
24.11.2017 22:46 6,8 C 6,7 C 5,6 C 96 % 13 lf 1010,5 hPa 0,0 l/m 0 min 2 min 0 W/m 0,0 km/h (0 Bft) 93,62 %
24.11.2017 22:48 6,8 C 6,7 C 5,6 C 96 % 13 lf 1010,5 hPa 0,0 l/m 0 min 2 min 0 W/m 0,0 km/h (0 Bft) 93,62 %
24.11.2017 22:50 6,8 C 6,7 C 5,6 C 96 % 13 lf 1010,5 hPa 0,0 l/m 0 min 0 min 0 W/m 0,0 km/h (0 Bft) 91,49 %
24.11.2017 22:52 6,8 C 6,7 C 5,6 C 96 % 13 lf 1010,4 hPa 0,0 l/m 0 min 0 min 0 W/m 0,0 km/h (0 Bft) 93,62 %
24.11.2017 22:54 6,8 C 6,7 C 5,6 C 96 % 13 lf 1010,4 hPa 0,0 l/m 0 min 0 min 0 W/m 0,0 km/h (0 Bft) 91,49 %
24.11.2017 22:56 6,8 C 6,7 C 5,6 C 96 % 13 lf 1010,4 hPa 0,0 l/m 0 min 0 min 0 W/m 0,0 km/h (0 Bft) 93,48 %
24.11.2017 22:58 6,8 C 6,7 C 5,6 C 96 % 13 lf 1010,5 hPa 0,0 l/m 0 min 0 min 0 W/m 0,0 km/h (0 Bft) 93,62 %
24.11.2017 23:00 6,8 C 6,7 C 5,6 C 96 % 13 lf 1010,4 hPa 0,0 l/m 0 min 0 min 0 W/m 0,0 km/h (0 Bft) 91,49 %
24.11.2017 23:02 6,8 C 6,7 C 5,6 C 96 % 13 lf 1010,4 hPa 0,0 l/m 0 min 0 min 0 W/m 0,0 km/h (0 Bft) 97,87 %
24.11.2017 23:04 6,8 C 6,7 C 5,6 C 96 % 13 lf 1010,4 hPa 0,0 l/m 0 min 0 min 0 W/m 0,0 km/h (0 Bft) 95,74 %
24.11.2017 23:06 6,8 C 6,7 C 5,6 C 96 % 13 lf 1010,4 hPa 0,0 l/m 0 min 0 min 0 W/m 0,0 km/h (0 Bft) 95,65 %
24.11.2017 23:08 6,8 C 6,7 C 5,6 C 96 % 13 lf 1010,4 hPa 0,0 l/m 0 min 0 min 0 W/m 4,5 km/h (1 Bft) 95,74 %
24.11.2017 23:10 6,8 C 6,7 C 5,6 C 96 % 13 lf 1010,4 hPa 0,0 l/m 0 min 0 min 0 W/m 6,8 km/h (2 Bft) 91,49 %
24.11.2017 23:12 6,8 C 6,7 C 5,6 C 96 % 13 lf 1010,4 hPa 0,0 l/m 0 min 0 min 0 W/m 6,8 km/h (2 Bft) 93,62 %
24.11.2017 23:14 6,8 C 6,7 C 5,6 C 96 % 13 lf 1010,3 hPa 0,0 l/m 0 min 0 min 0 W/m 4,5 km/h (1 Bft) 91,49 %
24.11.2017 23:16 6,8 C 6,7 C 5,6 C 96 % 13 lf 1010,2 hPa 0,0 l/m 0 min 0 min 0 W/m 4,5 km/h (1 Bft) 95,74 %
24.11.2017 23:18 6,8 C 6,7 C 5,6 C 96 % 13 lf 1010,2 hPa 0,0 l/m 0 min 0 min 0 W/m 2,3 km/h (1 Bft) 97,83 %
24.11.2017 23:20 6,8 C 6,7 C 5,6 C 96 % 13 lf 1010,1 hPa 0,0 l/m 0 min 2 min 0 W/m 4,5 km/h (1 Bft) 97,87 %
24.11.2017 23:22 6,8 C 6,7 C 5,6 C 96 % 13 lf 1010,2 hPa 0,0 l/m 0 min 0 min 0 W/m 0,0 km/h (0 Bft) 97,87 %
24.11.2017 23:24 6,8 C 6,7 C 5,6 C 96 % 13 lf 1010,3 hPa 0,0 l/m 0 min 0 min 0 W/m 2,3 km/h (1 Bft) 97,87 %
24.11.2017 23:26 6,8 C 6,7 C 5,6 C 96 % 13 lf 1010,3 hPa 0,0 l/m 0 min 0 min 0 W/m 0,0 km/h (0 Bft) 97,87 %
24.11.2017 23:28 6,8 C 6,7 C 5,6 C 96 % 13 lf 1010,3 hPa 0,0 l/m 0 min 0 min 0 W/m 0,0 km/h (0 Bft) 91,49 %
24.11.2017 23:30 6,8 C 6,7 C 5,6 C 96 % 13 lf 1010,3 hPa 0,0 l/m 0 min 0 min 0 W/m 2,3 km/h (1 Bft) 95,65 %
24.11.2017 23:32 6,8 C 6,7 C 5,6 C 96 % 13 lf 1010,3 hPa 0,0 l/m 0 min 0 min 0 W/m 0,0 km/h (0 Bft) 97,87 %
24.11.2017 23:34 6,8 C 6,7 C 5,6 C 96 % 13 lf 1010,3 hPa 0,0 l/m 0 min 0 min 0 W/m 0,0 km/h (0 Bft) 97,87 %
24.11.2017 23:36 6,8 C 6,7 C 5,6 C 96 % 13 lf 1010,3 hPa 0,0 l/m 0 min 0 min 0 W/m 2,3 km/h (1 Bft) 95,74 %
24.11.2017 23:38 6,9 C 6,7 C 5,6 C 96 % 13 lf 1010,3 hPa 0,0 l/m 0 min 0 min 0 W/m 2,3 km/h (1 Bft) 97,87 %
24.11.2017 23:40 6,8 C 6,7 C 5,6 C 96 % 13 lf 1010,3 hPa 0,0 l/m 0 min 0 min 0 W/m 2,3 km/h (1 Bft) 95,74 %
24.11.2017 23:42 6,9 C 6,7 C 5,6 C 96 % 13 lf 1010,3 hPa 0,0 l/m 0 min 0 min 0 W/m 2,3 km/h (1 Bft) 97,83 %
24.11.2017 23:44 6,8 C 6,7 C 5,6 C 96 % 13 lf 1010,3 hPa 0,0 l/m 0 min 0 min 0 W/m 2,3 km/h (1 Bft) 97,87 %
24.11.2017 23:46 6,9 C 6,7 C 5,6 C 96 % 13 lf 1010,3 hPa 0,0 l/m 0 min 0 min 0 W/m 2,3 km/h (1 Bft) 95,74 %
24.11.2017 23:48 6,8 C 6,7 C 5,6 C 96 % 13 lf 1010,3 hPa 0,0 l/m 0 min 2 min 0 W/m 2,3 km/h (1 Bft) 95,74 %
24.11.2017 23:50 6,9 C 6,7 C 5,6 C 96 % 13 lf 1010,4 hPa 0,0 l/m 0 min 0 min 0 W/m 2,3 km/h (1 Bft) 97,87 %
24.11.2017 23:52 6,9 C 6,7 C 5,6 C 96 % 13 lf 1010,3 hPa 0,0 l/m 0 min 2 min 0 W/m 2,3 km/h (1 Bft) 95,74 %
24.11.2017 23:54 6,9 C 6,7 C 5,6 C 96 % 14 lf 1010,4 hPa 0,0 l/m 0 min 2 min 0 W/m 2,3 km/h (1 Bft) 95,65 %
24.11.2017 23:56 6,9 C 6,7 C 5,6 C 96 % 14 lf 1010,3 hPa 0,0 l/m 0 min 0 min 0 W/m 0,0 km/h (0 Bft) 97,87 %
24.11.2017 23:58 6,9 C 6,7 C 5,6 C 96 % 15 lf 1010,3 hPa 0,0 l/m 0 min 2 min 0 W/m 0,0 km/h (0 Bft) 95,74 %
_ Min-Zeit 19:20 18:20 18:50 01:04 00:00 05:08 - - - - 04:52 04:05
Minimum _ 6,8 C 6,1 C 4,4 C 82 % 0 lf 1004,4 hPa - - - - 0,0 km/h (0 Bft) 13,04 %
_ Max-Zeit 01:08 14:28 01:00 09:38 03:14 19:50 06:10 10:06 04:05 14:26 00:52 02:08
Maximum _ 10,7 C 14,4 C 9,4 C 97 % 15 lf 1011,4 hPa 0,6 l/m 2 min 5 min 251 W/m 27,0 km/h
S-SW (4 Bft)
100,00 %
Durchschnitt _ 8,3 C 8,0 C 6,9 C 93 % 7 lf 1008,7 hPa #11,2 l/m #1:06 h #5:50 h 64 W/m 7,5 km/h (2 Bft) 96,21 %
© 2017 W. Hausmann